GFSNE_925_rhum_000.txt.gz
RH
31 36 38 38 40 42 42 45 48 64 53 44 38 32 29 31 37 50 48 45 50 49 56 50 44 75 78 77 76 84 85 85 86 79 83 90 93 86
31 34 38 37 41 36 35 34 39 44 53 42 41 43 40 46 48 45 45 50 54 53 50 54 65 42 40 40 81 91 84 90 93 89 94 97 96 90
32 33 36 37 39 35 35 37 38 41 51 50 49 46 44 43 44 44 47 49 47 49 54 68 53 61 66 77 81 76 81 94 91 94 92 93 95 94
32 34 35 35 37 37 38 40 44 44 49 59 51 48 50 50 52 48 45 47 48 47 45 49 60 65 70 72 84 79 77 79 79 82 81 88 97 97
36 38 39 40 40 41 43 45 47 49 58 58 59 60 58 55 56 57 57 46 50 52 52 49 55 67 74 83 68 72 81 91 85 80 90 92 82 95
40 43 44 45 45 48 49 50 55 60 58 61 68 65 62 59 54 53 53 57 62 62 62 66 67 77 73 79 80 77 87 80 86 94 87 78 87 85
47 46 46 48 53 54 56 61 66 62 67 72 69 62 57 56 57 60 58 61 70 66 77 75 68 73 74 69 69 68 75 70 82 90 94 94 90 93
49 47 45 46 46 55 60 66 59 72 85 94 75 63 60 60 58 61 71 76 82 80 63 71 68 74 73 69 75 84 83 78 80 87 86 90 93 94
48 46 46 45 56 64 59 54 73 79 62 60 64 61 64 66 70 82 82 78 76 71 73 82 75 80 74 77 73 76 85 93 90 91 94 90 91 95
47 47 48 58 63 52 55 91 76 60 56 53 56 75 90 78 69 74 90 89 85 79 75 95 77 77 72 88 97 94 93 96 93 93 97 98 99 100
49 50 63 66 53 54 97 94 71 59 53 62 65 63 61 65 74 87 91 92 85 77 71 88 84 91 93 73 74 93 99 99 99 97 99 100 99 98
56 61 60 53 60 81 65 59 69 61 70 74 63 64 68 72 69 79 93 94 91 88 72 97 81 91 82 72 95 86 91 72 99 97 98 99 100 100
74 69 58 71 78 53 50 57 64 63 71 65 69 72 73 74 76 79 86 91 94 91 80 96 91 88 82 84 73 76 82 97 100 100 100 99 100 98
70 63 84 64 53 52 58 62 59 62 66 72 74 76 77 79 82 83 87 92 95 95 95 99 96 93 88 86 81 73 95 99 100 100 100 100 100 100
62 96 60 53 52 58 59 58 59 65 70 77 81 82 81 83 88 90 92 92 92 98 97 98 99 96 95 91 86 89 97 98 100 100 100 100 100 100
91 72 52 51 52 58 58 59 63 66 73 84 88 89 85 84 85 84 94 89 95 89 97 96 96 98 95 93 94 94 98 98 99 100 100 100 100 100
68 57 52 54 61 61 62 64 66 70 78 87 93 89 86 87 88 90 94 96 95 93 93 98 96 96 98 98 94 97 96 98 99 100 99 99 100 100
60 56 61 67 68 67 68 70 73 76 90 94 92 91 93 93 93 94 97 96 93 92 92 95 96 95 96 96 99 95 97 97 98 99 97 91 97 100
60 67 71 71 72 73 74 77 82 90 96 94 94 94 94 94 94 95 96 95 92 93 93 95 90 93 92 90 95 98 96 98 98 97 99 95 94 99
69 74 75 74 75 77 80 84 93 93 94 94 94 95 95 95 95 95 95 94 87 81 80 86 90 93 94 93 90 97 96 98 96 96 96 98 97 98
74 75 76 78 81 83 86 94 95 95 95 95 95 96 96 96 94 92 87 82 79 80 82 85 96 98 87 94 87 90 95 94 91 86 89 83 74 67
75 80 82 83 85 89 95 95 95 94 95 95 95 96 96 97 85 76 66 66 73 78 78 88 97 94 84 72 80 82 80 90 94 85 76 79 60 62
85 86 88 88 90 96 96 96 96 95 96 96 96 96 97 90 75 69 63 81 93 92 93 92 94 91 85 77 77 78 82 78 79 91 100 100 90 74

GFSNE_925_rhum_003.txt.gz
RH
26 30 32 32 35 36 38 39 41 50 44 36 38 35 41 38 41 42 40 39 43 44 42 52 52 56 50 58 73 62 57 65 76 89 88 81 84 87
27 30 31 32 33 36 36 37 37 41 48 40 40 42 44 47 44 45 48 48 46 46 42 42 50 48 63 59 57 58 56 69 74 69 77 87 91 88
28 30 31 32 34 35 36 38 40 41 48 44 44 47 50 48 51 52 54 53 50 46 44 45 47 56 56 61 60 62 70 72 79 77 82 93 94 90
29 31 33 34 37 41 41 42 43 44 46 52 52 52 53 55 56 55 52 50 50 50 43 44 46 54 59 57 62 71 75 84 81 76 80 87 94 94
34 35 37 39 42 44 45 47 48 50 54 58 60 57 60 62 60 54 50 50 52 53 50 45 50 57 56 71 70 78 84 85 81 58 86 92 88 94
43 42 43 44 44 47 49 52 54 64 66 66 64 69 64 67 61 56 53 51 52 53 58 59 58 58 70 69 60 60 66 70 73 76 79 79 91 89
50 47 44 44 45 46 47 55 66 74 66 70 76 73 72 61 62 54 53 58 65 65 68 68 67 68 62 58 57 62 67 69 75 89 89 79 85 86
53 46 44 43 41 44 53 54 56 58 82 84 96 88 69 60 52 64 71 81 83 64 66 69 67 68 67 69 64 72 69 77 80 80 86 90 87 89
49 45 45 43 46 59 62 58 66 69 65 65 82 64 58 69 81 90 85 70 71 70 78 78 81 77 77 70 64 67 80 86 86 89 100 97 90 95
46 46 47 52 62 60 64 86 87 80 56 59 57 56 74 80 84 67 75 94 88 83 73 92 78 96 74 80 69 74 66 85 97 100 98 96 98 98
50 52 55 61 58 75 79 85 56 55 59 60 61 61 60 58 62 74 92 93 88 78 73 78 85 86 82 81 74 80 98 83 91 97 96 98 100 100
59 66 61 56 67 77 70 55 61 67 78 77 68 62 63 67 67 75 84 94 93 89 70 84 85 89 92 69 85 79 78 81 96 99 100 98 96 100
76 66 60 58 74 68 51 55 64 71 75 65 64 69 71 74 76 79 82 90 94 92 83 84 94 88 92 85 76 84 90 94 100 99 100 100 100 100
69 59 64 91 62 49 52 54 58 63 62 67 71 75 78 80 82 86 88 92 94 94 94 98 96 96 95 92 88 81 88 96 99 100 100 100 100 100
59 65 93 60 49 53 54 56 57 64 68 76 86 83 82 86 89 90 94 95 94 92 93 99 100 98 98 94 90 84 95 92 99 99 100 99 100 100
82 97 58 50 53 55 60 62 64 66 69 78 87 92 90 89 91 95 96 95 96 95 97 97 96 97 97 95 95 90 96 98 98 99 100 100 100 100
80 62 55 59 62 64 64 65 66 70 82 92 94 93 92 92 93 95 96 97 96 95 94 95 94 96 97 99 97 98 98 98 99 99 99 99 100 100
57 59 63 67 69 68 69 70 74 82 93 94 94 94 94 94 94 95 97 97 96 95 95 96 96 95 94 96 99 98 98 98 99 99 100 97 98 100
61 68 71 71 72 73 74 80 92 93 96 96 96 95 95 95 95 94 96 96 94 92 94 97 96 95 96 95 96 98 98 98 99 98 98 99 98 100
70 73 73 74 75 76 86 94 94 94 94 95 95 96 96 95 94 92 86 88 87 87 94 96 96 95 96 96 96 97 97 98 96 96 97 100 100 100
75 75 76 77 79 89 95 96 96 95 96 96 95 96 96 97 94 90 84 76 88 91 92 96 97 91 96 96 94 94 98 98 98 97 98 96 95 97
80 80 79 82 93 96 96 96 95 95 95 96 96 96 97 97 96 96 96 95 95 96 96 97 88 86 83 91 95 96 97 98 97 98 91 76 74 94
82 83 86 92 97 96 96 96 96 96 96 97 97 97 97 97 97 97 98 97 98 97 97 97 92 84 85 82 86 88 86 91 94 98 100 76 54 57

GFSNE_925_rhum_006.txt.gz
RH
25 25 27 32 33 35 38 40 47 55 52 41 39 41 44 43 45 51 46 49 49 49 49 50 48 50 51 48 46 48 50 53 52 56 66 61 75 86
26 26 28 32 34 36 37 41 43 48 55 43 46 45 44 50 52 49 52 54 55 52 48 46 47 48 49 50 53 48 60 61 56 51 56 62 64 77
25 29 32 35 36 39 41 45 48 48 58 51 47 47 55 55 54 57 60 60 58 52 49 47 46 47 48 48 46 51 63 60 61 67 64 62 73 74
35 39 41 42 44 44 47 48 51 51 51 55 58 60 58 60 62 65 63 64 58 53 46 46 44 46 48 51 50 49 57 74 81 82 85 80 73 69
46 50 52 51 49 49 48 51 50 52 58 67 67 66 67 66 66 66 68 60 54 46 47 52 54 56 58 59 56 60 70 88 76 67 83 66 70 79
58 60 59 55 52 50 50 50 52 59 68 70 82 90 72 73 94 73 63 55 53 60 60 66 62 58 60 60 57 60 60 58 62 65 80 70 80 91
64 64 62 53 50 48 47 51 59 60 80 96 87 89 82 77 69 62 59 64 65 65 78 61 63 65 70 67 69 65 68 73 72 88 79 81 77 82
67 64 56 50 46 49 53 54 54 78 87 96 87 66 60 60 77 68 72 77 89 69 64 73 74 75 77 88 71 79 88 64 67 69 71 79 82 86
64 60 53 51 56 59 64 69 96 95 73 58 58 58 76 93 85 90 94 92 80 74 81 84 80 88 71 70 73 78 91 83 61 69 83 87 83 92
62 59 57 58 62 64 71 99 96 76 62 60 58 72 83 79 68 65 70 86 88 83 76 91 83 72 72 79 80 79 87 76 95 99 97 93 95 97
62 62 65 68 67 62 76 96 85 67 62 61 83 78 60 57 61 68 92 91 85 76 76 87 78 78 79 83 90 88 98 83 74 74 78 82 94 99
67 74 74 63 56 71 81 71 69 61 69 95 67 63 66 71 70 76 91 94 92 88 71 87 88 91 91 75 81 63 82 93 82 85 93 98 99 100
74 82 76 60 80 76 56 57 58 62 82 65 67 72 75 81 86 86 89 96 94 92 83 89 94 90 91 91 82 82 79 85 89 95 99 99 100 100
87 80 67 85 75 54 55 56 60 62 67 71 75 82 84 87 88 91 95 98 98 98 97 100 95 96 94 94 90 72 79 87 96 100 99 99 100 100
71 73 86 75 57 57 58 59 60 69 73 86 91 88 91 94 98 97 97 94 95 95 98 98 99 98 98 98 95 90 92 85 98 99 99 100 100 100
84 98 70 61 58 61 66 67 70 72 77 90 94 94 94 93 94 95 97 95 96 96 88 95 96 98 97 92 97 93 96 97 96 99 100 100 99 100
84 70 62 65 72 70 71 71 73 80 94 95 95 94 93 93 92 92 97 96 94 96 93 94 95 97 95 97 96 97 98 98 99 99 100 99 100 100
66 66 70 75 74 74 74 79 86 90 95 96 95 95 94 95 95 95 95 97 94 94 94 96 96 90 92 91 99 97 98 98 99 99 100 97 98 100
69 75 78 78 79 79 83 91 94 95 97 96 96 96 96 95 91 94 94 96 92 94 96 97 96 94 94 95 96 98 98 98 99 98 99 99 98 100
76 81 84 80 81 89 94 95 95 95 96 96 96 96 96 96 94 94 94 95 94 94 95 97 96 96 96 96 96 98 97 98 97 97 98 100 100 100
81 85 81 85 93 95 96 96 96 96 94 97 96 97 97 97 94 95 96 91 93 94 95 95 98 98 96 95 94 95 98 99 98 99 94 93 97 98
86 83 86 91 96 97 96 97 96 95 96 97 97 97 97 98 96 96 96 96 95 96 97 88 87 87 96 95 95 96 97 99 98 98 95 92 84 97
86 92 92 96 97 97 97 97 97 97 98 98 98 98 98 96 98 99 99 98 98 98 98 96 89 82 89 97 95 96 97 97 98 90 83 95 96 98

GFSNE_925_rhum_009.txt.gz
RH
27 27 29 29 32 36 40 44 50 64 55 44 46 46 50 48 46 51 52 51 49 53 52 53 53 55 50 56 49 47 47 48 52 50 48 70 60 52
31 31 32 36 39 42 43 45 49 54 65 50 50 51 48 50 56 54 55 58 57 57 56 55 58 50 54 48 54 48 47 50 53 55 56 68 68 64
33 39 44 47 50 52 53 52 55 56 63 54 51 51 54 60 59 61 66 62 64 64 62 53 50 50 49 48 51 55 53 49 47 47 49 69 87 81
41 48 55 58 62 62 59 58 58 55 58 60 56 61 66 65 68 76 69 70 77 69 54 50 48 48 51 51 52 62 72 68 63 62 66 76 76 86
48 55 62 64 67 65 63 60 57 56 59 66 84 70 70 83 93 82 77 74 58 55 53 49 50 55 63 61 53 54 57 70 62 61 68 82 62 74
51 57 62 68 69 66 59 54 57 62 64 65 69 93 91 82 65 58 55 61 68 65 60 64 70 75 55 59 61 62 66 64 68 64 64 74 78 93
52 60 64 66 62 55 57 59 58 62 74 94 96 89 71 59 58 59 72 82 77 72 83 87 62 67 70 72 71 72 68 83 71 85 96 71 67 76
57 60 65 63 58 58 59 60 63 70 97 97 95 76 64 62 62 76 92 93 86 68 70 77 75 76 78 73 78 70 60 61 69 85 85 81 64 64
55 59 64 63 65 69 71 68 78 87 86 80 71 69 66 68 96 93 74 73 78 76 84 87 77 78 72 77 68 64 72 80 85 82 76 70 64 68
57 61 65 70 76 68 70 68 92 95 82 71 66 68 92 86 63 64 74 88 89 79 73 87 74 77 74 76 73 71 77 94 94 97 99 97 98 82
63 69 75 77 72 62 64 98 96 81 65 65 82 77 61 60 66 76 93 93 87 75 73 80 83 84 82 83 84 80 80 81 78 79 75 73 76 72
70 83 82 69 58 65 96 84 71 62 81 91 63 66 70 74 74 81 94 94 92 90 68 86 90 90 92 76 76 70 80 79 87 95 93 84 84 85
94 88 83 67 90 78 61 58 60 69 68 68 72 76 79 81 81 88 97 98 94 92 83 93 93 92 91 91 84 84 83 88 85 96 99 100 100 97
85 77 78 97 62 59 60 61 62 65 71 77 81 86 86 92 94 96 97 98 99 98 96 99 96 98 94 92 88 74 82 92 98 98 99 98 98 98
75 87 90 64 61 64 66 64 67 75 85 94 90 90 91 95 98 97 97 97 97 95 95 97 98 97 97 92 93 89 94 88 98 99 99 100 100 100
91 88 66 60 67 68 70 72 76 86 92 95 94 93 95 96 96 97 97 96 97 89 83 92 97 98 96 98 99 92 95 97 96 100 100 99 100 100
69 68 65 73 76 75 74 75 80 90 94 94 95 94 94 95 94 94 97 96 94 94 91 91 95 92 94 98 96 96 96 98 99 100 99 100 100 100
72 70 77 81 80 78 79 86 90 89 94 95 95 95 95 95 95 94 94 96 95 93 94 96 96 88 85 86 98 97 98 98 99 100 100 98 98 100
73 79 84 84 81 84 90 94 93 92 96 96 97 96 96 95 93 93 94 95 93 94 95 98 97 96 94 95 92 99 98 98 99 98 100 99 98 99
81 84 84 83 87 93 95 95 95 95 96 97 96 97 97 96 94 94 94 95 95 94 94 94 96 98 96 96 96 97 99 99 98 97 99 99 100 100
84 84 85 91 95 96 96 96 97 96 96 98 96 97 97 98 95 95 96 90 92 95 94 95 99 99 96 87 93 95 98 99 99 100 99 98 98 97
86 90 93 94 97 98 97 97 97 97 97 98 97 98 98 98 97 97 97 96 96 97 97 92 89 96 96 94 96 96 96 97 99 100 99 99 99 97
94 98 96 97 98 99 99 98 98 98 99 98 98 98 99 98 97 98 99 98 98 98 98 95 87 91 98 98 93 95 94 92 98 98 100 99 100 100

GFSNE_925_rhum_012.txt.gz
RH
31 33 34 35 39 44 47 51 59 69 62 48 51 52 51 51 50 50 52 58 57 59 56 56 54 56 57 60 70 63 62 57 54 60 55 48 55 57
34 35 39 46 52 55 56 59 62 64 71 57 56 54 53 54 55 57 60 63 65 61 57 53 52 52 60 60 49 54 64 52 48 48 51 48 49 58
36 42 48 53 59 62 68 69 69 66 71 63 58 58 60 62 65 69 70 79 81 60 56 54 53 54 56 57 53 50 51 54 59 60 59 58 52 52
43 47 52 58 62 67 72 73 71 69 69 71 71 75 70 70 68 87 92 70 66 58 53 53 55 50 50 52 55 56 56 87 75 65 60 65 68 71
46 51 54 58 64 71 72 74 72 71 71 68 66 64 65 71 96 69 62 55 52 52 54 58 59 59 65 76 75 81 57 57 60 66 61 64 64 62
46 50 55 58 65 70 66 63 65 65 66 68 76 87 92 86 67 60 57 58 59 64 84 75 62 64 63 61 60 62 66 67 66 70 70 62 60 67
47 49 55 61 66 63 62 65 67 78 94 95 77 78 92 64 63 63 66 64 89 71 63 65 68 68 70 70 68 67 68 68 70 71 73 72 71 66
54 57 58 65 64 65 66 64 65 68 70 77 96 80 71 69 70 72 88 87 77 64 66 74 73 74 76 76 72 70 68 67 81 72 70 82 74 68
61 61 64 69 74 82 80 70 71 70 95 76 75 74 72 83 98 84 76 78 81 78 82 81 75 76 74 72 69 72 71 70 71 84 87 84 77 82
67 68 70 79 80 66 65 78 97 85 74 64 62 79 90 70 65 72 86 95 92 80 74 90 77 78 76 77 77 76 76 75 72 82 92 98 94 88
70 72 82 78 72 64 96 88 72 66 60 74 80 66 63 65 73 92 93 92 86 74 73 82 82 84 84 85 82 79 79 76 74 91 92 88 92 96
77 94 89 69 70 84 65 66 67 66 92 79 70 68 74 76 77 85 97 94 92 89 68 87 88 88 92 75 74 73 80 79 78 84 85 90 94 99
94 82 74 81 74 61 60 67 69 70 80 73 77 79 82 84 86 93 98 98 94 91 82 94 93 91 92 90 77 75 75 84 83 97 98 99 99 99
74 82 97 74 62 63 68 67 69 72 77 82 86 84 86 93 94 97 98 98 99 98 96 99 96 96 94 90 86 72 79 86 94 99 98 99 99 99
84 80 79 66 65 71 72 72 71 79 88 93 89 89 94 96 98 97 97 95 97 96 96 97 98 97 97 94 92 87 89 84 96 99 99 100 100 99
78 88 69 67 72 74 75 75 78 83 92 94 94 94 95 94 96 97 97 94 96 88 84 94 97 98 96 96 98 92 92 96 93 99 100 99 99 100
70 72 70 76 80 79 78 79 81 86 93 94 95 94 92 91 93 94 97 96 94 93 90 91 92 97 92 98 95 92 95 96 99 100 99 99 100 100
74 73 80 83 85 83 84 87 88 88 93 96 96 95 95 95 95 94 95 96 95 93 94 95 97 92 90 85 99 96 97 97 99 100 100 98 97 100
79 85 87 88 88 89 92 93 93 93 96 97 97 96 96 96 92 93 93 94 91 94 95 98 97 96 94 94 88 99 98 98 99 97 99 99 98 99
87 88 90 91 92 94 95 96 96 96 96 98 96 97 97 97 95 93 94 95 94 94 93 93 96 97 96 96 96 95 99 99 99 98 98 100 100 100
89 91 92 95 97 97 97 97 99 97 96 98 98 97 97 97 95 96 96 92 91 95 94 93 98 99 97 89 92 92 98 100 100 99 99 98 96 96
92 95 96 98 98 99 99 99 99 98 98 98 97 98 98 98 97 97 97 96 96 97 97 87 92 94 97 94 96 96 96 100 100 100 100 100 98 97
98 99 99 99 100 100 100 100 99 99 99 98 98 98 98 97 100 98 98 98 98 98 98 93 86 89 94 99 94 96 95 95 96 97 99 100 99 100

GFSNE_925_rhum_015.txt.gz
RH
34 34 36 42 48 52 56 61 67 77 70 56 59 58 59 58 56 57 56 58 56 58 59 57 59 55 53 51 53 54 54 60 72 77 70 70 65 57
37 39 42 47 52 55 59 63 71 76 85 65 65 64 64 63 63 61 61 62 64 68 65 61 56 52 52 53 57 62 64 69 77 69 64 65 67 57
42 44 47 50 53 57 59 68 77 80 83 73 70 70 74 71 69 67 69 87 92 79 64 55 51 51 51 54 67 70 62 64 63 64 66 61 63 65
45 46 47 50 55 58 63 72 77 78 81 85 83 67 62 63 67 72 97 83 74 62 54 51 52 54 57 73 66 66 68 65 67 69 80 86 74 70
46 48 49 52 60 63 67 74 78 76 84 73 71 70 73 82 79 96 68 59 56 54 54 58 61 64 62 58 56 67 74 74 73 75 69 68 68 63
51 53 56 58 63 68 70 68 80 75 73 78 87 88 74 85 86 62 59 59 63 66 72 77 63 59 60 62 62 61 62 63 65 67 70 74 71 68
62 62 62 67 67 63 63 65 65 74 92 95 77 92 80 60 65 64 68 73 89 78 68 66 65 66 70 70 68 66 69 70 73 78 82 84 79 77
64 63 64 69 68 66 67 65 67 74 83 98 92 68 68 68 68 80 94 79 85 69 70 84 78 74 74 74 72 72 70 70 74 79 81 78 77 87
65 66 68 72 77 82 82 75 96 92 73 71 72 69 70 87 97 92 89 91 85 79 87 89 77 76 73 73 71 73 74 72 71 73 78 88 81 76
68 70 73 81 89 72 89 98 81 72 70 65 66 82 89 74 72 86 96 96 92 80 73 92 79 79 77 78 78 78 78 76 72 76 77 74 76 93
72 81 89 84 74 79 86 74 70 71 64 76 84 71 67 71 78 94 93 92 84 73 73 80 81 85 84 84 82 79 77 73 67 68 70 73 75 75
91 82 78 69 70 82 66 67 75 70 97 93 72 73 78 82 80 87 98 94 92 88 68 87 89 90 91 71 69 73 79 78 78 77 77 79 82 98
67 81 79 83 74 65 63 72 75 87 83 77 82 83 85 83 86 92 98 98 94 92 83 94 93 90 92 89 78 77 78 78 79 85 88 97 98 99
88 84 90 78 67 66 71 74 74 74 80 83 89 86 87 91 94 98 99 98 98 97 96 99 96 96 93 91 88 74 80 84 92 98 98 99 99 99
84 75 78 70 69 74 78 76 76 82 86 94 90 90 92 96 98 97 97 96 96 95 95 97 100 98 97 94 93 88 91 83 90 98 98 99 99 99
77 80 72 70 74 78 80 79 82 84 88 92 94 94 95 94 94 94 96 96 97 86 84 90 97 98 96 95 97 93 92 96 92 98 100 100 100 100
72 75 74 80 83 83 82 83 84 87 91 93 96 95 94 93 93 92 97 96 94 92 90 90 92 96 96 98 95 92 95 96 99 99 99 97 100 100
79 79 85 87 88 88 89 90 91 91 95 97 97 97 96 96 95 93 94 95 94 92 94 95 97 93 81 75 97 97 96 98 99 100 100 98 97 99
85 90 91 91 92 92 94 96 95 95 98 99 99 98 96 97 93 94 94 94 91 92 95 98 97 95 93 93 83 96 98 98 99 97 99 98 98 98
91 93 94 94 95 96 96 97 97 98 98 99 97 97 98 98 96 94 94 95 95 94 93 93 95 96 96 96 96 94 99 99 98 97 97 99 100 97
93 95 96 97 98 98 98 99 100 97 97 98 98 97 98 98 95 96 97 93 93 94 94 93 98 99 94 84 88 87 98 99 100 99 98 97 92 92
97 98 99 99 99 100 100 100 98 98 99 99 97 98 98 99 97 98 99 96 96 97 97 94 92 86 94 98 96 94 96 96 99 100 100 99 97 96
100 100 100 100 100 100 100 100 99 99 98 98 98 97 98 97 99 100 100 98 98 99 100 96 90 88 94 99 94 95 93 96 97 97 98 99 100 99

GFSNE_925_rhum_018.txt.gz
RH
35 38 40 40 45 49 52 58 71 76 61 53 60 60 66 68 64 63 63 64 63 59 56 56 64 66 72 68 58 58 51 52 58 60 70 70 65 72
40 44 45 46 47 50 53 58 64 77 85 62 67 70 71 72 71 69 69 67 65 64 64 70 72 61 65 58 50 50 51 53 65 71 70 71 69 75
44 46 46 46 48 51 56 61 66 76 86 76 72 71 77 72 66 68 70 72 75 87 88 73 62 53 50 56 57 65 68 69 74 76 68 68 69 74
49 49 50 52 54 56 60 65 71 78 85 86 82 77 69 71 75 84 89 86 82 62 57 55 53 54 54 60 73 72 72 69 72 69 70 68 66 67
55 57 59 60 60 62 68 75 77 83 90 86 76 73 75 83 96 85 69 59 59 57 57 59 60 61 63 72 65 71 73 77 80 72 68 73 73 76
64 60 58 60 68 71 71 68 70 70 70 75 78 89 97 84 67 58 61 64 67 70 77 70 67 64 62 60 62 62 64 65 67 70 71 74 74 70
61 59 60 69 74 69 68 70 70 75 86 97 90 79 69 63 65 67 71 77 81 72 70 72 73 70 71 73 72 69 70 71 70 70 78 83 84 79
64 65 68 70 74 73 73 72 71 99 95 85 80 71 68 69 69 83 93 83 85 71 72 89 83 79 77 74 72 73 71 71 71 75 79 83 77 85
65 68 72 78 78 83 79 81 97 79 71 69 71 72 72 80 98 94 90 90 85 82 88 90 79 78 74 72 71 73 74 74 74 77 81 88 82 79
67 71 80 81 86 73 80 99 83 74 72 70 70 84 98 81 75 82 97 97 92 80 74 92 78 78 76 76 76 75 75 74 74 80 83 80 77 73
68 82 82 77 72 73 92 84 73 75 68 75 87 78 72 76 81 94 93 92 85 74 74 79 80 83 83 83 80 77 72 70 69 72 73 76 81 78
73 69 82 73 72 88 68 70 77 73 92 96 74 73 80 84 84 85 94 95 91 89 67 88 88 89 90 68 66 75 79 80 82 84 85 83 82 86
69 86 86 77 77 66 66 74 80 86 82 77 83 84 87 86 89 94 98 98 95 92 83 94 93 90 92 91 78 77 79 83 90 94 94 98 98 99
84 80 79 75 70 69 74 79 77 78 82 86 88 88 89 93 95 99 100 100 100 97 96 100 96 96 93 89 86 75 79 87 96 99 99 98 99 99
76 75 78 74 71 78 82 80 80 86 88 94 91 91 94 98 100 99 96 95 96 96 94 93 98 98 97 94 93 88 94 86 89 96 98 99 98 100
80 78 78 73 78 81 83 83 85 87 90 94 95 96 98 96 96 96 98 97 97 88 84 86 96 98 96 94 97 93 94 96 92 98 100 99 100 100
74 81 78 84 87 86 85 86 87 89 92 95 97 97 96 95 95 94 98 96 95 91 90 88 91 96 93 95 95 89 93 96 98 99 99 97 98 100
83 83 89 90 91 91 91 91 92 93 96 98 99 98 97 97 96 95 96 96 95 92 93 92 97 92 80 68 82 98 92 94 98 98 99 97 92 99
89 94 94 94 94 95 95 96 96 96 99 100 100 99 97 97 95 95 95 95 92 92 93 94 98 95 92 91 71 74 98 97 97 95 97 97 98 99
95 96 96 97 97 97 98 98 98 98 99 100 98 97 98 98 96 94 95 95 94 94 91 90 94 96 96 96 96 87 98 99 98 97 97 98 97 98
97 97 98 100 100 99 99 99 100 98 97 97 98 97 98 98 96 96 97 92 93 94 93 92 93 96 91 86 87 85 94 98 99 99 98 96 96 94
100 100 100 100 100 100 100 100 99 99 98 98 98 98 98 99 97 97 97 96 95 97 98 97 86 86 90 100 96 94 94 97 89 95 99 99 98 97
100 100 100 100 100 100 100 100 100 100 98 97 98 98 98 98 100 100 99 98 98 98 98 96 92 90 89 95 92 92 94 96 98 96 95 99 99 99

GFSNE_925_rhum_024.txt.gz
RH
37 40 42 39 41 41 42 43 42 44 37 30 29 33 38 44 47 52 52 54 57 60 62 63 65 68 63 60 72 69 76 68 63 73 67 71 71 65
39 42 43 42 43 43 44 45 45 44 45 36 36 39 44 48 50 53 52 56 59 61 61 60 61 62 62 61 62 62 62 65 66 66 69 66 69 58
44 46 47 47 47 43 43 44 45 45 45 46 45 47 51 52 50 51 54 62 60 51 52 55 59 63 66 67 68 70 72 76 75 74 74 70 71 72
47 49 49 46 46 45 44 47 48 52 53 53 56 56 53 52 58 62 56 48 45 46 52 59 63 64 66 68 70 71 74 74 75 77 75 76 75 73
51 53 52 47 47 48 50 54 56 55 58 64 63 56 57 70 66 56 51 46 48 51 53 57 62 65 68 69 67 68 68 69 73 76 70 70 70 72
54 57 56 51 52 55 58 58 54 58 58 58 64 68 86 61 55 47 47 51 55 59 63 62 61 62 64 62 63 66 67 69 71 72 71 73 73 72
52 54 51 56 69 74 69 63 62 65 75 81 77 86 65 53 46 50 57 61 72 63 62 63 57 61 65 65 64 64 64 67 72 76 83 82 82 78
51 50 51 56 58 66 67 68 73 93 96 93 90 65 53 48 54 62 76 88 75 63 60 69 67 66 64 62 61 63 67 70 73 73 74 76 81 78
54 54 53 54 61 61 69 70 74 81 86 72 67 54 54 60 77 92 83 75 72 71 74 76 66 63 62 62 64 68 72 75 80 83 83 82 84 79
55 56 57 60 60 67 70 82 93 71 57 58 58 62 70 86 92 76 81 84 83 75 67 76 67 68 67 68 70 73 75 77 82 91 94 91 85 81
55 55 59 60 68 66 82 98 64 54 53 57 68 80 81 69 73 83 90 86 82 72 72 72 67 76 77 76 73 63 66 69 77 81 91 98 98 98
53 54 54 63 64 77 82 63 61 55 63 88 74 60 61 64 71 75 87 94 88 86 64 79 86 81 80 61 66 73 76 76 79 80 82 88 97 99
56 54 56 59 70 69 69 65 64 76 83 69 62 63 66 70 73 80 89 97 94 91 81 90 91 89 88 86 77 77 78 82 83 83 84 86 90 98
61 60 61 70 72 71 70 72 80 81 71 66 69 74 79 85 90 95 98 100 99 100 97 100 96 95 93 88 81 72 76 83 89 92 94 98 98 91
69 67 71 71 70 65 67 81 80 69 69 75 83 86 87 91 97 98 95 96 98 98 98 98 100 98 97 93 90 86 84 86 88 96 97 99 99 100
67 70 65 66 61 65 67 66 68 71 76 83 86 89 92 92 93 93 95 93 95 90 88 91 94 98 96 93 90 91 88 92 89 95 95 98 94 100
73 64 58 55 60 63 66 69 72 75 82 85 91 93 91 91 92 92 94 95 93 89 88 89 90 94 97 97 96 87 82 84 86 97 99 96 89 98
74 61 59 64 66 71 76 79 83 86 88 94 95 95 94 94 93 92 93 95 93 88 88 90 93 90 81 74 71 80 78 84 94 95 98 98 92 89
67 69 71 71 75 80 85 90 92 92 97 97 97 96 96 95 92 93 92 92 90 88 88 90 92 93 93 87 68 69 85 94 97 90 87 98 98 98
73 74 75 75 80 87 92 95 96 96 97 97 96 97 97 96 94 93 92 93 92 90 89 86 86 93 96 94 95 92 77 97 99 94 93 97 92 87
75 76 77 81 89 95 96 98 98 98 97 98 98 97 97 97 94 94 94 90 90 91 91 86 86 92 98 95 89 77 78 82 92 99 99 97 96 88
78 81 82 88 96 98 99 99 99 99 98 98 97 98 98 98 96 96 94 94 92 93 93 92 91 93 89 88 89 86 83 82 81 87 98 99 99 98
85 85 89 96 100 99 100 99 100 100 99 98 98 98 98 97 97 98 97 96 97 95 92 91 89 85 86 83 84 86 88 82 80 84 88 98 99 100

GFSNE_925_rhum_027.txt.gz
RH
37 39 41 38 38 39 40 42 44 51 45 34 31 31 34 36 40 46 48 49 52 55 56 58 60 60 60 61 63 66 66 67 68 72 73 73 64 62
36 39 41 41 41 42 42 42 42 44 50 41 39 38 41 44 48 49 49 51 54 53 56 59 56 56 59 62 67 69 70 74 74 72 73 75 77 74
40 42 43 44 44 42 41 42 43 44 48 46 49 49 51 52 52 51 56 58 56 52 50 52 55 60 64 66 66 68 73 74 72 77 74 78 79 72
41 44 45 43 45 44 43 44 45 46 51 53 53 56 56 54 55 62 64 62 51 47 48 53 58 60 62 64 66 67 69 72 71 82 85 77 77 80
44 46 47 48 47 45 47 50 53 56 55 55 57 56 59 62 71 74 54 51 46 48 52 54 58 62 64 63 63 65 66 65 66 68 68 72 73 71
45 47 49 51 49 50 57 62 59 59 60 62 65 71 72 76 66 54 49 50 56 57 61 66 59 61 62 60 63 66 68 68 67 68 69 72 78 79
46 46 46 46 55 60 64 66 67 68 73 80 81 78 83 62 57 51 56 64 68 74 69 64 62 62 66 65 64 64 64 66 67 72 76 80 78 82
46 46 46 48 48 53 60 61 64 68 83 87 93 84 68 62 54 64 75 80 88 67 66 71 69 70 69 65 62 63 66 68 71 73 77 81 83 82
48 49 50 49 53 56 58 61 68 71 74 78 70 64 60 61 69 79 88 87 76 74 75 85 80 72 67 65 66 68 70 74 78 79 79 81 87 88
47 48 52 52 55 56 62 72 81 84 74 60 56 59 63 72 94 98 88 81 82 77 74 86 75 73 71 71 71 73 76 76 74 73 74 76 80 87
45 48 50 54 54 59 63 80 85 66 60 54 60 70 74 70 64 68 83 89 84 76 74 79 76 80 80 80 78 67 67 68 76 78 80 80 80 85
51 52 51 52 57 60 65 74 70 66 63 76 82 74 62 61 65 68 81 96 93 87 71 83 90 92 89 66 64 74 79 78 79 81 82 82 85 99
62 56 56 57 62 66 67 71 70 69 85 86 71 64 67 72 77 83 87 96 96 92 83 91 93 92 93 89 78 77 78 79 83 83 88 88 88 93
61 61 64 65 66 66 69 66 70 74 76 68 70 74 79 84 86 91 94 96 98 99 93 100 96 97 94 90 84 73 77 80 86 90 92 94 96 97
63 66 66 67 65 63 60 67 69 66 68 73 80 83 86 89 92 95 92 95 91 92 94 97 100 98 98 94 91 88 82 81 86 94 92 99 99 99
70 72 69 62 54 55 58 62 65 69 76 87 90 91 92 94 93 93 97 96 97 91 86 90 93 98 97 96 95 92 84 86 87 89 98 99 95 90
70 74 64 53 58 60 63 68 73 78 89 93 96 96 94 94 93 93 95 96 95 89 88 87 88 91 95 100 96 89 87 88 82 86 99 95 89 87
76 68 58 64 66 68 74 79 85 89 94 98 97 97 97 96 95 95 94 95 94 90 92 88 91 95 85 78 76 87 89 88 88 90 96 98 89 82
64 66 71 72 74 77 83 90 94 95 97 99 98 98 98 97 93 94 93 93 90 87 88 89 95 95 94 89 69 71 92 95 95 95 87 92 96 91
69 73 75 75 77 84 92 96 98 97 98 99 98 98 98 98 96 94 94 94 94 92 92 86 86 93 96 95 94 86 82 90 98 95 92 91 96 94
73 75 76 79 84 93 98 99 99 99 98 98 98 99 98 98 96 95 95 90 89 92 92 89 89 88 95 99 94 78 75 79 92 99 99 98 97 96
76 81 84 85 92 99 99 99 99 99 98 99 98 99 98 98 97 97 96 96 94 93 96 93 88 91 98 95 93 92 88 88 86 87 95 100 99 98
85 87 88 93 98 100 99 99 99 99 99 98 98 98 97 97 98 98 98 98 97 98 89 93 92 88 86 89 90 94 92 90 88 90 89 97 99 99

GFSNE_925_rhum_030.txt.gz
RH
34 37 38 40 38 39 40 42 48 60 54 43 41 37 38 40 43 49 51 51 53 57 59 58 57 60 60 60 59 60 64 72 73 75 80 76 73 73
34 36 38 42 42 43 43 43 43 48 59 46 48 47 47 51 52 54 54 56 56 58 58 58 58 58 58 59 62 70 74 73 71 78 78 79 80 80
37 39 42 44 45 44 44 44 44 45 57 52 51 54 55 55 55 57 56 60 64 63 60 56 55 57 60 62 62 65 68 72 75 79 80 78 81 77
39 42 44 46 46 47 47 45 48 50 54 62 62 60 60 60 60 63 69 77 67 55 56 52 56 60 61 64 67 70 68 67 72 76 79 71 76 74
43 44 46 48 50 50 50 51 57 62 64 67 68 68 67 71 75 78 79 63 56 53 53 58 58 65 70 65 66 64 64 67 67 67 70 71 74 75
47 46 46 47 48 50 53 57 64 67 70 73 74 82 83 81 85 77 65 59 59 64 65 71 76 69 66 65 66 70 72 71 70 68 69 72 73 75
47 46 46 46 51 53 56 57 62 66 69 81 84 78 82 95 72 71 66 67 69 73 78 78 69 69 72 72 71 73 73 72 69 71 71 74 75 78
50 49 48 49 49 52 57 59 60 63 73 78 90 94 77 72 65 68 72 76 83 77 74 78 75 76 76 79 76 72 71 73 73 75 75 76 77 82
51 48 49 49 53 52 56 59 61 67 69 72 79 77 70 65 66 78 86 93 94 84 80 83 78 78 77 76 74 76 75 76 78 79 77 79 81 82
48 46 47 49 51 56 56 61 64 69 76 76 68 65 65 71 84 98 94 84 82 82 79 86 77 78 77 80 79 78 78 80 75 71 72 74 79 81
51 53 54 56 54 56 61 63 71 80 74 69 67 72 77 75 71 69 79 87 84 78 78 84 82 87 86 84 79 65 72 72 75 80 81 82 82 83
64 64 62 59 61 62 63 69 80 76 72 73 86 77 72 68 71 74 79 94 93 88 72 87 93 94 86 68 64 72 75 82 83 81 81 82 84 86
70 65 62 63 65 66 66 67 72 68 74 84 75 74 73 76 80 84 89 99 96 92 84 92 94 93 94 89 80 79 80 79 82 85 87 90 92 93
64 64 67 71 68 67 67 65 65 68 69 69 73 78 84 89 90 91 93 96 96 100 98 100 97 97 94 90 86 74 77 82 87 91 90 92 90 93
66 70 71 71 72 65 58 61 66 65 70 78 89 93 92 92 96 100 98 98 98 94 94 94 100 99 98 94 91 89 84 84 88 92 89 92 91 96
74 75 77 73 63 60 63 64 69 74 80 87 90 96 97 98 98 98 99 96 98 92 86 87 91 97 97 96 96 92 88 92 88 88 87 93 93 95
70 75 75 65 70 72 73 75 79 84 90 94 99 98 97 97 96 96 98 98 96 91 89 87 88 91 95 98 96 91 89 89 87 90 94 95 92 90
73 68 68 76 79 80 80 83 89 92 96 99 98 99 97 97 97 97 97 97 96 92 92 89 91 94 88 80 83 95 97 95 92 91 91 96 92 83
67 71 76 80 83 83 85 91 97 98 99 100 99 99 99 98 95 97 96 96 93 91 91 92 96 96 93 90 69 72 97 97 95 94 91 94 96 91
74 76 78 81 84 88 93 99 100 100 100 100 100 98 98 98 97 95 95 95 95 94 94 89 91 96 96 95 94 86 87 91 99 96 92 91 92 90
77 80 84 88 90 93 99 100 100 99 98 98 99 99 99 98 96 96 96 92 92 93 92 90 89 97 98 100 95 79 76 79 88 99 99 98 93 95
83 89 91 92 93 97 100 100 100 100 100 100 99 99 98 99 97 97 97 96 94 95 95 98 95 97 99 96 92 89 85 84 85 86 90 98 99 97
87 90 93 93 94 99 100 100 100 100 100 98 99 98 99 98 98 99 100 99 99 97 97 95 94 91 89 94 92 93 92 86 86 88 88 94 99 99

GFSNE_925_rhum_033.txt.gz
RH
29 32 34 37 39 39 40 43 49 68 59 48 44 41 46 47 52 56 57 56 59 60 60 62 65 64 63 63 60 66 68 76 81 76 76 75 76 75
32 34 36 38 41 42 43 44 45 51 66 45 49 51 54 59 58 60 57 61 59 63 67 69 63 65 63 61 61 64 69 73 76 80 79 77 78 77
35 37 39 42 44 45 45 46 46 46 63 58 58 61 64 62 63 62 60 62 68 70 68 65 62 62 61 63 64 65 64 76 74 79 80 82 79 79
36 39 42 44 46 48 49 50 49 50 60 68 67 70 70 68 70 72 72 78 80 75 65 62 60 62 65 67 70 73 70 68 77 77 76 74 74 73
40 44 45 46 48 49 51 52 51 54 60 66 75 74 75 79 80 87 89 83 70 67 61 60 64 69 76 72 70 69 69 70 70 69 72 72 75 74
48 47 47 47 47 49 51 54 57 60 64 70 78 82 85 77 85 93 74 72 70 67 67 71 75 77 73 71 72 74 76 76 76 72 76 79 81 79
43 44 47 48 53 56 56 56 59 63 66 72 88 87 80 84 79 75 76 72 73 72 75 77 82 79 77 77 76 76 82 80 76 74 78 78 84 86
41 46 49 49 49 54 57 56 60 62 67 73 86 83 81 80 76 74 75 79 82 76 80 87 79 80 78 80 80 78 76 77 78 80 81 81 82 84
48 49 47 47 51 51 52 59 59 63 67 69 82 86 87 77 71 78 91 97 95 89 85 85 82 84 81 79 77 77 79 81 80 78 77 81 80 80
50 54 56 58 58 61 59 60 67 64 67 79 82 77 74 76 94 97 90 84 84 82 80 86 79 81 80 82 81 80 82 82 81 77 73 74 77 78
57 59 64 66 63 64 64 64 67 73 76 75 72 76 79 78 75 79 86 88 86 80 80 85 82 88 89 87 75 66 77 75 74 79 81 82 81 82
66 67 65 67 66 65 67 72 77 73 68 70 80 78 68 66 78 78 82 94 93 89 71 86 92 93 86 69 68 68 76 76 83 84 82 83 83 84
69 67 66 69 70 70 68 70 70 65 72 78 67 70 75 80 84 87 92 98 97 93 86 93 94 94 94 91 82 81 81 81 81 85 88 89 91 93
71 70 69 77 73 72 69 67 65 69 66 71 78 83 90 94 93 95 97 99 98 100 99 100 96 98 94 90 86 75 78 83 88 93 94 96 97 96
74 75 78 80 78 70 67 69 71 68 75 85 92 93 94 97 97 100 96 95 95 91 91 91 100 99 99 94 91 89 85 84 87 91 90 89 90 92
74 84 82 73 69 72 74 72 74 80 85 90 95 98 100 100 100 99 100 100 100 92 83 89 92 96 97 97 97 92 87 91 86 92 93 92 91 92
77 71 66 70 79 82 81 81 82 86 94 97 99 98 98 99 98 98 100 100 98 92 91 89 90 94 98 100 96 91 90 90 90 91 94 96 92 90
71 73 79 83 86 86 87 88 91 95 99 100 100 100 100 100 100 98 97 98 96 92 93 92 94 96 89 83 88 96 95 95 92 94 96 97 91 85
75 77 82 86 89 91 93 96 100 100 100 100 100 100 100 99 94 96 96 97 94 92 92 94 97 96 94 89 68 71 93 97 95 94 93 94 95 89
78 82 87 90 94 96 96 99 100 100 100 100 100 99 99 99 98 95 95 96 95 93 93 88 90 96 96 94 94 89 90 96 98 96 94 92 95 94
85 90 92 94 94 94 96 100 100 100 100 100 99 99 99 98 96 96 97 93 92 94 92 88 87 92 100 99 94 80 78 81 85 96 98 97 92 88
88 91 91 92 93 96 99 100 100 100 100 99 98 98 99 100 98 97 97 96 95 96 96 95 96 95 95 95 92 89 85 84 83 84 86 98 99 97
89 91 92 94 95 98 100 100 100 100 99 97 97 98 100 100 100 100 100 99 99 97 95 94 92 90 90 92 88 89 86 84 86 94 93 88 95 93

GFSNE_925_rhum_036.txt.gz
RH
28 28 30 33 36 38 39 41 47 63 66 45 41 41 43 50 54 62 61 60 62 64 64 68 69 70 68 66 62 62 66 71 70 73 74 72 79 74
29 30 33 35 38 41 42 44 46 52 69 48 44 47 52 55 60 63 61 69 66 71 72 72 70 69 68 66 70 69 67 74 76 77 74 78 78 76
32 34 36 38 41 43 45 45 46 49 67 56 54 54 60 63 64 66 61 67 71 77 73 75 73 69 68 66 66 67 68 68 75 82 80 76 78 78
34 37 39 42 44 45 47 48 49 50 55 67 63 63 67 69 72 71 71 71 74 74 81 74 71 68 69 70 73 72 70 80 71 68 69 70 72 64
38 42 45 48 47 48 49 50 52 51 54 65 74 70 72 72 75 79 84 83 76 78 71 69 69 72 77 77 75 73 73 73 72 72 72 70 67 79
56 62 62 52 48 48 49 52 56 59 62 66 73 77 75 75 80 85 83 76 77 74 72 76 77 79 77 76 78 78 79 78 78 78 76 74 80 77
67 48 44 47 50 60 59 57 60 62 62 65 78 81 87 85 79 80 84 80 78 77 76 78 77 83 85 83 80 80 82 84 81 81 80 80 85 82
34 42 46 47 48 57 58 59 58 61 65 73 78 90 88 83 84 86 84 87 86 76 84 89 83 82 82 81 83 84 82 79 76 79 80 82 85 82
44 47 48 53 55 55 55 64 62 65 68 70 76 80 88 84 83 86 91 96 94 86 86 85 81 83 80 80 79 81 81 81 81 80 79 77 81 81
47 56 60 63 63 68 67 65 66 66 70 75 80 80 79 83 96 98 95 87 90 85 82 87 79 81 81 81 82 83 85 85 84 80 76 75 77 80
55 64 72 72 69 69 67 68 75 80 74 74 72 74 77 78 76 77 88 93 88 82 81 87 85 86 84 84 72 63 80 79 76 76 78 80 81 81
65 68 67 72 70 69 71 74 76 75 67 71 78 76 64 63 79 81 84 96 95 90 70 81 87 93 84 68 68 66 73 77 82 85 86 84 83 82
72 69 68 73 76 76 72 71 72 67 74 73 66 68 73 79 85 87 93 100 98 94 86 95 93 95 94 91 83 82 83 82 78 82 87 89 90 89
74 73 72 84 79 75 72 73 71 74 70 71 83 89 93 93 89 94 93 97 99 100 100 100 97 99 95 91 87 77 78 82 87 92 91 92 97 93
76 80 86 85 81 73 75 76 78 71 79 89 96 95 97 96 94 100 96 94 95 87 92 92 100 99 99 94 92 89 88 83 86 92 94 94 93 97
80 91 80 74 70 76 74 72 75 81 88 92 97 100 100 100 100 100 100 100 100 95 84 89 93 95 98 98 97 93 87 92 87 92 94 96 97 97
93 72 65 71 78 81 82 81 82 87 96 98 100 100 100 100 100 99 100 100 98 94 93 88 89 94 98 100 96 92 92 92 91 93 96 96 94 94
78 76 81 84 89 91 92 91 90 96 100 100 100 100 100 100 100 99 99 100 98 94 95 93 95 96 90 84 92 96 94 95 92 94 99 98 92 86
77 81 85 89 92 93 93 95 99 99 100 100 100 100 100 99 96 100 99 98 95 94 93 93 97 96 94 89 68 70 92 98 96 92 91 91 93 89
79 85 88 89 91 93 94 99 100 100 100 97 98 98 99 100 100 98 97 97 96 94 94 90 92 96 96 94 94 86 85 93 98 96 94 92 92 91
84 87 88 90 93 96 98 100 100 100 100 98 98 98 97 98 97 98 99 97 96 95 93 89 88 93 99 100 94 78 76 79 88 99 98 97 92 88
90 92 93 95 97 99 99 98 99 100 99 100 100 98 97 100 99 99 98 98 96 95 95 97 95 94 98 97 91 88 85 83 85 88 95 99 98 97
93 96 97 96 97 99 99 98 100 100 98 100 100 98 99 100 100 100 100 99 99 97 93 93 90 88 88 91 89 92 94 93 93 93 87 80 80 80

GFSNE_925_rhum_039.txt.gz
RH
29 31 31 28 30 32 33 36 41 56 62 43 36 36 39 40 46 56 62 59 71 72 74 75 75 74 72 70 69 68 64 66 67 71 71 74 83 75
41 36 33 32 36 37 38 41 43 47 65 45 42 41 44 48 56 64 62 67 64 76 79 79 75 74 73 71 69 69 74 67 64 75 79 76 78 75
63 58 39 35 36 39 42 44 46 50 65 55 52 48 53 58 62 62 60 59 59 71 77 79 79 78 74 72 71 69 68 73 75 74 79 73 83 76
65 57 40 37 41 44 46 46 48 50 56 65 57 58 62 63 65 68 66 62 70 72 83 85 78 74 74 74 72 73 76 76 75 79 80 76 76 70
52 43 45 46 49 51 53 51 50 51 54 63 71 70 70 66 70 74 73 76 76 76 75 75 76 77 80 79 76 72 74 73 73 73 72 70 69 68
58 59 76 87 84 60 51 49 53 57 60 64 71 73 72 70 78 84 82 78 81 77 71 79 82 82 80 78 80 82 84 83 81 79 77 76 73 74
99 97 65 54 51 63 66 61 59 61 63 64 76 78 80 86 86 80 88 86 88 82 72 76 80 82 83 82 80 80 84 88 86 82 79 78 84 83
69 50 46 45 47 51 64 69 66 64 65 74 73 82 91 81 83 88 88 96 89 78 80 86 84 85 79 77 78 86 86 84 82 81 78 79 84 86
43 43 45 52 55 54 54 66 68 70 70 71 79 80 82 83 82 93 96 98 96 91 88 89 85 86 75 74 76 82 84 85 84 81 82 81 82 82
44 49 57 66 64 72 72 70 68 70 76 81 82 79 76 76 88 98 97 92 90 88 85 88 78 81 78 73 82 84 86 85 85 83 80 78 78 80
56 63 71 73 70 72 70 70 79 80 74 73 74 78 81 79 76 76 86 94 89 84 83 86 86 82 84 84 71 58 82 81 78 77 78 79 78 79
64 70 69 74 71 74 74 82 76 73 68 77 80 75 66 61 74 81 86 97 96 91 67 79 83 92 84 67 67 64 70 69 83 86 87 86 85 82
75 69 66 78 81 82 76 76 74 72 76 77 71 65 70 74 82 86 94 100 99 94 87 94 94 96 95 92 85 81 79 80 76 80 86 88 90 90
75 73 81 90 83 80 77 74 75 78 76 71 82 88 92 90 87 90 89 92 98 100 99 100 97 98 95 92 87 78 79 84 88 91 93 87 94 95
77 86 97 85 80 72 73 78 82 72 78 89 97 97 95 92 89 87 88 93 96 93 90 89 100 99 98 94 92 90 89 84 86 92 92 91 86 91
92 86 79 74 70 72 62 64 73 81 92 94 95 97 95 94 98 96 100 100 100 94 82 86 92 96 98 98 98 93 88 93 86 92 95 97 99 100
84 79 63 65 69 70 74 79 82 88 94 95 100 100 100 100 100 95 97 100 100 95 94 88 88 94 99 99 96 92 92 93 91 93 97 96 94 96
81 71 76 78 83 86 89 89 89 93 94 100 100 100 100 100 100 100 100 100 99 96 97 95 96 98 89 82 92 97 96 96 94 95 97 97 94 91
75 76 82 84 86 90 93 96 96 94 96 96 97 98 100 98 99 100 99 99 96 94 94 94 98 96 94 89 69 72 94 97 97 96 93 91 90 88
78 85 86 88 93 96 97 99 98 96 97 98 99 100 98 98 100 98 97 97 96 94 93 89 92 97 96 94 94 86 89 96 98 96 94 92 94 93
86 90 93 95 96 98 99 99 100 98 100 99 96 100 99 99 98 99 99 96 94 94 93 89 87 93 97 99 93 78 75 80 91 99 98 97 92 88
91 95 95 95 98 99 98 98 97 96 95 96 100 100 98 100 100 99 99 98 96 96 96 96 94 94 98 97 92 89 86 83 84 87 91 98 98 96
92 96 95 97 98 98 97 97 98 96 95 98 100 100 98 100 100 100 100 100 100 97 95 94 92 92 86 93 96 94 93 90 85 88 87 80 83 83

GFSNE_925_rhum_042.txt.gz
RH
44 35 37 47 29 30 31 28 32 49 51 41 35 35 36 38 40 48 53 58 75 72 72 77 77 79 77 75 73 72 70 68 66 65 73 76 66 78
40 41 41 37 40 40 42 40 38 41 56 39 38 37 41 43 45 54 58 62 60 72 74 77 78 78 77 75 73 70 72 68 72 74 69 71 80 80
49 48 59 60 58 57 50 54 50 48 60 53 49 44 45 49 54 57 60 64 60 56 76 77 80 81 78 74 72 70 70 68 75 78 73 78 75 84
76 80 73 76 71 71 69 68 65 70 65 65 56 54 56 58 60 64 66 68 64 60 77 83 80 78 78 78 77 74 76 80 79 79 84 81 80 82
83 72 69 69 76 92 98 99 98 60 54 62 66 65 66 63 67 70 72 71 72 70 75 79 81 83 84 83 77 75 75 75 75 74 73 72 71 69
75 74 83 96 99 100 97 87 58 55 58 62 68 69 69 70 74 82 85 79 81 76 70 77 86 82 80 78 79 82 85 86 84 80 77 77 75 74
88 97 100 97 70 90 95 83 69 65 65 67 74 76 80 81 86 81 86 88 91 84 72 72 73 80 73 70 74 79 86 89 87 83 80 83 84 87
99 95 48 54 57 60 77 71 68 68 70 75 75 83 87 84 83 88 90 95 88 78 78 85 87 84 76 74 68 87 87 85 84 83 80 81 85 88
49 48 50 54 50 49 52 70 74 75 74 76 83 84 87 83 80 90 94 100 98 92 92 89 86 86 77 71 77 83 84 86 87 86 82 79 77 79
48 48 54 61 58 71 72 72 70 72 77 80 82 80 78 79 83 89 92 88 87 88 86 91 80 80 77 70 77 84 84 85 86 85 83 79 77 78
57 62 68 68 64 73 71 72 87 86 75 73 78 85 85 80 77 81 86 96 90 85 85 88 86 82 83 81 67 59 79 78 77 78 80 82 84 80
66 72 65 73 76 77 80 93 80 76 69 80 80 74 63 64 72 80 88 100 98 91 71 82 84 92 86 66 66 66 68 65 82 86 87 86 87 88
72 67 69 84 83 87 79 78 75 72 80 81 69 66 69 71 74 79 88 100 100 96 86 95 93 96 95 91 83 80 79 77 71 75 86 90 92 92
76 78 85 92 88 83 78 76 77 82 74 71 80 82 84 83 80 82 81 85 92 99 84 100 96 98 95 91 87 78 80 84 87 90 90 86 93 96
85 96 92 85 80 67 76 80 84 71 80 91 95 93 91 88 83 81 80 84 88 85 83 85 98 99 100 95 92 91 92 83 86 91 84 83 82 90
85 85 81 66 61 70 61 67 74 81 94 95 93 91 92 88 89 90 95 94 100 89 84 86 90 96 97 99 100 94 90 94 86 92 95 97 99 100
88 69 59 62 63 64 70 76 82 86 91 93 95 98 95 96 92 92 96 100 100 97 95 85 88 92 97 100 97 94 94 94 93 95 99 97 94 95
70 68 69 73 77 82 87 89 87 90 93 96 96 97 98 99 100 99 100 100 100 98 98 93 96 99 89 82 88 99 98 98 95 96 97 98 94 90
69 75 80 82 88 93 94 95 96 93 94 94 96 96 98 94 100 98 98 100 99 96 95 97 100 98 94 90 70 73 94 98 97 96 93 94 94 89
76 84 89 94 94 96 97 97 96 94 94 96 97 99 97 97 99 99 100 99 98 95 95 91 94 95 96 94 94 86 88 97 98 96 95 93 94 92
83 88 93 95 97 98 98 97 98 96 100 100 96 97 99 98 98 100 100 100 98 96 94 91 88 92 99 100 94 78 76 80 94 99 98 97 91 88
86 91 93 95 98 98 97 97 96 95 95 97 98 100 99 98 99 100 100 100 98 99 98 96 97 95 97 97 92 88 86 83 84 88 88 96 98 96
86 90 89 89 92 97 97 97 98 96 95 94 97 98 100 98 98 100 100 100 100 99 98 94 90 89 89 94 96 94 90 88 87 87 85 84 82 82

GFSNE_925_rhum_045.txt.gz
RH
60 49 42 35 34 44 61 56 42 52 45 40 37 37 38 37 36 40 42 48 57 74 74 75 74 76 78 77 76 74 73 72 71 69 67 66 69 78
55 50 42 44 56 49 44 50 50 41 47 41 43 45 46 54 54 50 52 55 65 74 76 76 77 78 77 76 75 74 72 70 71 77 75 66 75 80
54 46 50 56 61 61 60 58 64 72 86 80 80 93 89 58 50 52 54 60 68 68 76 75 77 81 79 77 75 74 73 70 68 69 70 77 81 79
53 53 62 66 73 80 86 84 82 87 96 96 96 72 53 52 55 58 64 65 73 74 75 78 78 80 80 80 80 76 77 78 79 83 84 84 84 81
72 82 87 83 83 85 88 98 99 99 99 99 91 87 83 68 68 74 77 79 80 76 75 76 81 84 86 85 80 77 77 77 75 74 73 72 71 73
87 89 88 89 96 100 100 99 99 95 96 100 94 84 79 76 74 82 76 72 70 72 77 80 84 82 80 78 79 82 84 86 85 83 80 79 80 80
92 95 99 100 99 98 94 94 97 99 96 88 82 80 77 74 73 74 77 72 76 80 81 77 78 78 78 82 82 82 84 89 88 86 80 82 84 85
99 99 98 97 69 80 89 94 95 84 79 86 82 77 76 79 80 79 80 80 80 73 79 77 77 74 73 74 76 84 86 85 85 84 80 84 85 83
98 85 68 64 55 56 60 72 75 77 77 78 83 78 80 78 82 93 91 89 88 81 79 79 73 74 74 73 77 79 82 84 86 86 83 81 80 81
47 50 55 70 62 79 72 72 70 72 75 83 86 82 80 83 90 94 95 83 80 77 78 81 71 69 70 72 76 81 85 86 85 83 81 78 79 84
60 82 80 70 54 75 74 75 86 88 77 69 78 86 86 83 79 82 88 86 86 74 76 78 76 75 77 78 75 70 77 80 78 78 81 83 84 81
69 66 53 74 80 79 89 97 83 78 72 82 81 73 60 62 68 86 93 99 94 85 78 83 80 84 79 67 74 76 77 78 82 85 87 86 87 88
70 69 70 85 86 91 82 83 76 72 82 80 70 71 76 80 86 92 98 100 100 98 87 96 90 91 93 87 80 79 79 79 81 83 85 89 93 95
79 82 92 93 89 85 79 78 79 83 72 73 81 85 90 92 82 80 82 87 94 96 81 100 96 99 95 91 84 77 78 83 88 92 94 96 92 94
90 93 90 86 77 56 72 82 85 71 83 89 92 96 99 85 81 82 80 83 88 82 80 81 92 98 100 96 92 90 90 83 90 94 92 96 96 96
82 82 71 62 54 61 60 71 78 87 94 94 97 100 96 91 96 92 97 97 100 91 86 83 86 93 100 100 100 95 93 95 86 92 95 96 98 100
91 64 57 62 71 76 82 86 88 91 98 100 100 100 100 100 97 88 92 100 100 98 95 85 94 100 100 100 100 97 94 93 92 94 98 96 92 93
64 72 80 84 87 90 93 93 90 92 96 99 100 100 100 100 100 94 100 100 100 98 98 97 99 99 90 84 89 100 99 96 93 95 97 98 94 91
71 83 90 94 96 96 96 99 100 95 94 94 97 96 99 100 100 100 100 100 97 97 96 96 100 98 94 89 70 73 93 96 94 95 94 93 94 91
76 87 92 93 95 97 98 100 97 96 95 95 96 97 100 100 100 100 100 98 97 94 93 92 93 96 95 92 94 88 89 96 98 95 93 91 92 92
78 85 89 92 95 97 97 97 98 96 100 100 97 97 98 99 99 99 100 96 94 95 94 91 89 91 95 98 93 78 74 78 92 99 97 97 91 87
77 82 85 88 90 90 93 96 96 95 94 95 93 95 98 100 100 100 100 98 95 94 95 96 96 98 96 94 90 85 82 80 83 86 90 98 97 94
73 77 80 81 82 83 86 95 96 95 94 96 96 98 100 100 100 100 100 100 100 98 96 95 93 87 87 89 85 88 85 83 81 84 82 84 91 90

GFSNE_925_rhum_048.txt.gz
RH
89 83 70 61 48 37 34 36 58 76 67 56 56 49 48 45 50 48 50 58 68 65 73 74 76 77 77 79 78 78 77 76 74 73 70 69 69 68
92 82 67 52 41 40 51 60 62 61 72 60 62 59 54 51 49 78 91 60 69 71 74 77 78 78 77 78 78 77 75 74 72 70 68 65 73 77
88 77 63 57 68 74 65 57 60 64 81 88 78 80 88 98 99 95 81 79 66 66 69 77 76 78 80 78 77 76 74 73 71 69 67 68 79 80
80 72 73 66 64 68 66 68 80 90 93 98 99 99 98 98 90 86 83 69 65 62 71 78 82 78 80 80 81 80 78 74 74 75 82 82 83 82
75 66 68 74 87 93 96 95 97 98 98 99 99 97 96 94 90 80 69 66 66 69 68 62 67 74 81 83 83 80 79 78 77 76 75 73 72 72
73 76 83 89 93 95 99 98 98 99 98 99 94 89 90 87 81 73 60 58 58 57 60 66 75 78 81 83 84 85 86 86 85 84 82 80 78 77
94 96 97 99 100 100 99 99 98 98 97 93 84 78 69 62 57 57 61 60 61 60 60 62 61 62 64 66 68 72 74 77 83 86 83 80 83 84
99 100 100 98 99 98 99 99 98 89 91 81 78 69 60 57 59 61 66 65 65 64 65 66 63 61 60 60 62 69 76 82 83 82 82 81 77 79
99 98 99 96 64 61 59 86 86 89 88 79 68 60 60 63 76 82 75 72 76 70 66 66 63 63 61 59 62 68 74 80 83 85 86 84 80 78
75 81 89 84 79 82 76 81 79 74 71 74 74 70 68 67 68 80 86 76 69 66 65 69 63 62 62 63 65 70 74 76 80 82 84 80 78 82
81 83 81 76 63 78 71 78 76 75 78 77 77 79 84 84 81 75 78 75 76 69 68 71 67 69 72 75 74 73 76 78 80 82 81 82 84 83
69 65 54 73 82 82 79 84 74 66 62 71 68 64 62 62 77 83 78 89 88 83 67 78 78 84 79 67 72 72 76 75 78 80 82 86 88 88
61 63 69 86 89 92 85 75 72 68 65 71 59 56 64 69 75 78 83 96 98 96 86 95 88 90 92 86 78 77 79 82 80 79 80 83 88 91
68 71 80 90 89 84 77 73 79 81 66 58 65 71 77 86 94 99 98 99 100 100 94 100 98 98 97 93 86 78 78 83 89 93 94 94 94 94
78 84 88 81 73 64 69 81 83 67 68 72 77 85 92 99 99 99 100 100 100 100 94 86 100 100 100 98 94 91 90 85 90 96 98 95 92 93
85 78 65 56 52 57 62 69 73 73 77 80 82 88 94 99 100 100 100 100 100 98 92 92 97 100 100 99 98 93 92 94 88 92 94 95 96 95
86 59 52 54 58 63 71 76 78 80 84 88 94 96 94 94 98 100 100 100 100 98 96 95 97 97 96 99 99 97 95 94 91 92 95 96 93 92
60 54 55 62 68 74 76 78 84 89 92 99 100 100 100 100 100 100 100 99 96 95 96 96 96 93 90 86 90 98 97 94 91 90 94 97 92 90
60 63 70 77 84 86 89 94 96 98 100 100 100 100 100 100 100 100 99 98 91 91 92 92 97 96 94 89 71 71 78 84 90 92 91 92 93 90
74 77 81 86 89 92 98 100 100 100 100 100 100 100 100 100 100 100 98 98 95 92 93 88 91 93 95 92 93 86 85 90 95 94 90 88 89 90
73 78 83 90 94 100 100 100 100 100 100 100 100 100 100 100 100 100 100 98 96 93 92 87 87 88 93 98 94 80 72 74 81 97 98 97 91 88
73 78 84 92 98 100 100 100 100 100 100 100 100 100 100 100 100 100 100 98 97 97 94 94 95 96 98 97 90 84 80 75 77 82 86 94 98 94
81 82 85 93 99 100 100 100 100 100 100 100 100 100 100 100 100 100 100 99 99 98 95 92 94 94 91 91 88 88 82 77 77 79 81 82 91 93

GFSNE_925_rhum_051.txt.gz
RH
94 92 83 76 66 55 56 72 75 84 67 63 63 56 56 58 59 55 47 48 52 67 83 78 76 76 76 78 79 79 79 80 78 76 75 74 72 70
99 96 94 84 78 74 60 51 58 73 91 83 82 72 65 63 57 63 56 59 76 88 82 74 75 80 82 81 80 80 79 78 76 75 74 72 70 66
100 99 92 84 75 62 62 75 85 85 90 91 76 73 72 69 74 84 96 97 82 74 71 70 70 74 79 81 80 80 78 76 76 74 71 70 66 71
98 93 88 78 68 74 76 79 82 87 89 98 99 98 99 100 100 99 94 83 72 64 63 70 76 82 80 75 78 80 80 79 77 75 73 71 68 71
93 88 85 78 76 76 79 87 96 99 98 98 100 99 99 98 94 87 83 71 65 62 64 61 59 62 71 79 83 83 83 82 81 80 79 77 76 72
90 87 79 77 82 94 96 97 98 99 99 99 98 98 97 92 89 80 69 61 59 58 57 60 63 66 71 72 72 74 78 82 83 83 82 80 78 75
91 91 95 96 98 98 98 99 98 99 99 98 90 83 76 71 70 58 59 60 62 61 60 61 61 62 64 66 64 64 66 69 74 78 80 79 78 78
100 100 100 100 99 98 98 97 96 97 88 80 80 73 63 58 56 58 72 75 71 62 66 69 69 65 63 62 63 64 69 72 76 80 81 80 80 77
99 98 97 87 77 65 63 71 88 89 88 84 75 65 58 59 69 71 74 77 79 73 76 71 69 68 65 62 62 67 72 74 77 80 81 80 79 78
94 82 80 78 72 77 72 76 78 74 73 71 69 69 68 67 65 68 73 76 75 72 68 72 68 68 68 67 70 73 76 80 82 83 84 85 83 81
79 78 73 66 59 77 73 72 78 70 72 75 76 76 78 81 82 81 81 80 82 77 74 76 73 73 76 74 62 72 72 73 75 80 82 83 83 82
62 58 58 76 82 83 84 78 76 68 63 62 66 65 64 62 66 74 80 85 85 88 74 77 81 89 93 67 70 69 71 76 81 79 81 83 83 83
61 63 67 88 90 89 87 82 71 74 70 65 64 54 57 63 68 72 75 80 91 94 90 94 89 97 94 90 83 85 83 78 83 88 87 87 89 89
64 66 74 90 87 82 75 67 76 82 72 57 59 66 72 81 87 93 97 98 99 100 97 100 99 98 99 96 92 84 86 88 90 97 96 94 92 93
76 82 81 76 68 64 61 76 78 68 64 66 73 80 85 94 99 100 100 99 99 99 100 97 100 100 100 99 95 94 93 88 91 91 95 93 96 92
74 74 67 56 62 59 57 64 69 70 72 78 82 86 91 96 98 98 100 100 100 99 99 94 98 97 99 97 98 95 90 94 90 96 98 98 94 89
84 61 47 47 52 56 63 69 73 75 78 86 90 94 96 95 95 98 99 100 99 98 95 96 98 97 95 99 98 91 92 93 94 96 98 97 97 96
72 48 48 54 60 67 72 74 80 86 89 92 99 100 98 98 99 100 100 100 97 94 92 91 94 93 92 89 91 97 94 93 93 90 93 96 93 88
60 55 64 68 75 82 85 87 91 94 98 100 100 100 100 100 99 99 99 99 97 97 91 87 91 97 94 91 72 72 76 80 83 87 88 91 94 91
59 70 74 78 83 87 90 94 99 100 100 100 100 100 98 98 100 95 96 97 96 94 96 92 92 86 94 94 94 88 86 88 90 92 93 92 92 91
66 69 74 78 86 90 96 97 100 100 100 100 100 100 99 98 97 95 95 95 94 94 94 92 90 90 92 96 95 83 76 74 76 84 89 91 91 89
69 70 74 79 87 92 98 100 100 100 100 100 100 100 99 96 99 98 96 96 93 94 95 97 95 94 98 99 92 86 82 80 80 80 81 83 94 94
77 80 79 82 88 94 96 96 98 100 100 100 100 100 99 98 98 99 98 98 97 94 94 95 91 90 98 98 97 87 90 85 82 80 77 76 84 93

GFSNE_925_rhum_054.txt.gz
RH
100 98 97 90 76 71 66 62 67 95 93 97 91 92 76 54 55 68 67 74 65 73 74 78 68 91 91 81 82 82 81 81 81 80 78 77 75 74
100 100 100 99 90 78 72 66 75 92 98 90 88 76 68 69 80 89 75 68 64 66 79 88 98 85 80 80 82 82 82 81 80 77 76 74 72 71
100 100 100 100 94 90 86 83 86 87 94 98 93 96 98 96 97 91 83 83 86 93 94 92 77 74 76 78 82 83 81 80 79 76 75 73 72 69
100 100 100 98 94 92 92 93 95 97 97 99 98 100 96 93 90 98 99 96 89 64 73 70 71 77 81 77 73 76 80 81 80 79 77 76 74 72
99 99 97 93 87 84 87 89 94 95 94 94 100 100 100 99 99 94 83 77 71 67 68 64 61 62 65 71 77 82 83 83 83 83 81 80 79 77
93 92 90 88 86 88 94 98 100 99 98 98 100 100 97 98 92 78 74 66 64 61 58 59 63 67 66 70 71 72 75 76 77 78 80 80 80 78
95 93 92 94 98 99 98 99 97 95 95 94 95 91 89 87 82 71 72 61 61 62 58 60 63 64 62 61 67 68 70 72 73 75 76 75 78 79
99 100 98 100 100 99 99 99 95 95 94 89 82 80 72 63 59 62 71 72 75 61 70 66 60 65 63 65 67 72 71 72 74 77 78 76 77 78
99 98 97 96 90 78 76 83 85 89 88 86 83 74 66 67 67 67 67 68 76 72 75 81 74 72 65 64 67 74 76 78 82 82 83 83 82 78
95 77 65 69 70 75 71 72 74 70 70 72 71 71 72 71 69 72 77 78 77 70 75 78 72 69 60 64 63 72 81 85 81 80 81 82 82 82
70 66 64 60 70 78 75 75 78 73 76 75 73 74 73 80 80 82 82 83 86 83 79 81 75 73 69 63 58 61 77 79 80 86 85 84 81 81
56 59 74 76 84 87 89 80 75 71 67 64 63 67 66 62 65 68 72 77 84 83 83 81 82 88 89 74 72 70 73 71 87 88 89 88 87 85
62 63 70 86 91 87 86 82 79 77 74 73 70 60 55 61 65 68 72 75 79 83 88 94 94 99 93 91 85 85 81 76 83 86 90 92 97 96
71 75 80 89 80 77 72 69 75 78 71 65 58 65 71 78 80 84 92 97 95 94 98 100 99 99 100 96 92 86 89 95 91 88 89 82 86 94
69 76 82 71 66 60 61 71 76 60 66 68 72 79 82 86 92 97 98 99 100 99 99 99 100 100 100 97 95 94 89 88 89 82 86 96 92 90
70 69 74 57 54 56 60 60 67 70 73 76 76 82 88 93 95 95 96 94 96 97 99 100 97 96 100 100 100 96 91 95 89 88 93 95 91 84
79 58 49 47 52 57 61 67 71 73 76 80 89 90 97 98 98 98 98 97 98 96 96 97 92 88 90 91 99 95 95 96 95 94 96 99 96 94
75 58 51 57 64 70 78 80 83 87 90 93 96 100 100 100 99 96 95 95 99 96 94 97 98 97 96 93 96 100 100 99 93 94 92 98 93 89
62 60 64 71 75 80 86 88 90 95 98 100 100 98 96 97 98 92 94 97 97 96 94 93 96 97 94 91 73 74 78 84 89 92 92 95 97 92
59 62 68 73 77 83 87 90 97 98 98 98 98 97 96 96 98 97 95 96 96 94 95 93 97 97 96 93 94 88 87 92 94 94 95 91 91 92
68 69 69 70 74 80 88 92 93 95 98 97 97 98 95 96 98 100 99 93 92 96 94 89 87 92 96 97 95 83 80 80 81 86 89 92 92 91
70 72 72 74 76 80 83 89 95 100 100 100 100 99 99 98 99 100 100 99 97 97 95 94 92 92 100 98 89 87 87 85 86 83 84 86 92 92
70 73 78 80 80 81 84 90 96 97 96 96 96 96 100 99 98 99 99 100 99 98 98 96 93 92 95 94 89 90 84 91 85 84 86 81 74 75

GFSNE_925_rhum_057.txt.gz
RH
86 99 100 100 96 91 91 79 82 92 93 85 73 71 64 61 72 87 91 91 85 86 94 97 97 97 95 98 98 89 87 85 83 82 80 79 77 76
98 100 100 100 100 99 99 91 92 89 94 83 91 93 91 92 95 97 94 92 99 99 98 98 98 100 99 99 90 83 83 83 82 79 78 76 74 73
97 100 100 100 100 99 100 97 92 95 98 100 94 96 98 96 97 99 97 100 98 92 97 100 100 100 93 81 81 82 83 81 80 78 77 75 74 72
100 100 99 100 99 98 97 96 98 100 100 100 100 99 100 100 100 100 100 93 87 88 98 99 89 77 76 80 78 73 76 80 81 81 80 77 75 73
99 100 100 99 94 91 92 96 99 100 99 97 100 100 100 98 96 92 91 99 99 87 85 77 72 69 67 69 73 76 80 82 81 81 80 77 78 77
96 94 94 93 90 90 94 97 98 97 97 97 100 100 100 100 100 100 93 77 68 66 66 60 67 67 72 72 75 77 79 78 78 77 77 78 78 77
98 98 98 96 97 99 98 99 98 97 95 96 97 97 96 94 90 76 78 69 62 64 60 57 62 60 60 57 60 64 73 78 78 78 78 77 76 73
100 100 99 98 100 100 99 99 97 94 94 93 90 84 79 74 72 71 70 71 71 65 67 65 57 59 59 62 59 80 79 78 80 81 81 80 78 76
97 98 97 98 96 89 84 79 81 88 90 85 84 78 70 70 69 69 70 70 72 70 76 72 65 68 60 58 59 70 84 83 87 88 88 86 83 82
74 72 70 62 68 68 67 68 67 66 66 67 69 71 74 76 78 76 76 78 79 74 65 87 75 69 60 57 59 62 64 80 83 83 86 87 85 81
52 64 60 62 78 81 78 80 81 76 83 82 78 74 71 74 82 81 84 86 86 82 78 84 81 80 69 62 60 57 64 71 85 90 93 91 90 87
54 55 69 82 86 89 87 86 80 76 73 70 65 64 66 64 64 66 67 75 78 86 88 89 90 91 85 76 71 74 72 73 88 92 96 97 96 94
66 67 73 87 87 83 81 80 73 76 79 73 71 67 56 63 69 71 74 79 81 81 82 88 98 92 96 89 84 90 87 80 86 83 81 86 95 97
72 74 76 84 77 72 70 72 74 78 75 64 62 68 75 82 85 91 92 94 99 99 98 98 98 95 95 95 93 84 88 85 85 83 80 74 81 88
79 85 84 74 68 56 52 67 72 56 68 71 74 78 83 86 88 89 95 96 97 98 97 99 97 96 96 97 96 96 94 85 84 80 79 85 83 82
71 73 60 60 52 54 58 60 67 70 78 80 80 88 90 96 98 96 95 92 95 92 92 96 97 96 99 100 100 99 95 97 88 95 92 93 91 93
81 58 49 50 58 61 66 72 75 78 83 91 93 94 98 98 97 95 93 92 99 98 96 94 91 92 98 99 100 97 97 98 98 93 98 100 99 96
77 63 60 65 69 73 79 84 86 88 89 94 94 97 97 94 93 93 90 94 96 97 96 93 94 97 98 96 100 100 100 100 98 97 96 100 97 90
63 61 60 65 72 77 83 88 87 94 96 97 99 96 96 95 96 94 97 99 98 98 95 92 94 100 94 91 76 75 79 83 89 93 95 99 99 93
63 66 68 69 71 74 79 85 86 94 96 98 95 95 94 94 99 98 97 100 100 98 100 97 99 100 96 91 92 87 88 91 95 98 97 96 96 97
73 70 70 72 72 74 76 80 87 89 92 94 94 97 98 97 99 100 100 97 95 98 96 94 90 91 94 98 95 85 81 80 82 91 92 96 94 90
69 69 70 72 75 79 80 82 84 88 96 95 97 96 97 97 99 100 100 100 98 98 98 98 96 98 100 99 90 87 85 84 85 85 86 90 96 93
67 71 75 77 76 76 79 80 82 84 86 87 89 86 90 96 96 100 100 100 99 98 98 98 97 98 98 97 91 91 89 88 86 87 86 90 84 81

GFSNE_925_rhum_060.txt.gz
RH
87 89 99 100 99 98 98 100 98 99 98 93 92 93 89 88 91 97 93 90 89 89 99 99 98 98 98 95 98 99 99 96 97 90 85 83 80 78
75 79 88 96 100 100 100 100 100 99 97 91 97 88 91 90 98 90 87 92 97 98 98 98 97 99 98 100 100 100 100 94 89 85 81 78 76 75
93 99 100 100 100 100 100 100 98 97 99 100 100 98 96 98 100 100 100 100 100 99 99 100 100 100 100 100 100 96 92 83 80 79 78 77 75 75
99 100 99 99 99 100 100 100 98 98 100 100 100 100 100 100 100 100 98 98 98 99 99 99 100 100 100 91 86 82 82 78 78 79 79 78 75 78
99 99 98 95 94 92 95 99 99 99 99 98 100 100 100 100 100 100 100 100 99 100 99 99 99 93 82 76 74 74 76 80 80 80 82 80 78 76
93 92 92 91 90 89 91 93 95 96 97 98 100 100 100 100 100 100 99 100 98 83 70 74 70 67 73 72 76 78 83 83 83 81 81 80 80 79
99 99 100 100 98 98 96 96 94 94 94 95 99 99 100 98 99 95 90 76 70 66 62 61 58 55 58 58 60 59 74 79 82 83 81 80 77 77
99 99 99 99 99 100 100 98 96 95 91 92 93 87 83 83 81 78 74 72 68 65 62 60 55 48 53 60 59 59 83 86 84 84 84 84 81 81
85 81 74 69 68 66 69 60 75 84 88 83 83 79 72 70 70 70 70 71 68 66 73 67 51 57 61 58 58 70 86 87 88 90 90 88 87 83
58 56 55 61 74 76 66 69 70 68 70 71 72 73 75 76 79 80 79 79 80 75 70 81 74 66 59 57 59 61 82 87 89 88 91 92 91 88
54 70 68 60 82 96 81 81 83 79 85 84 81 79 76 80 78 85 87 89 87 78 80 82 83 82 67 61 62 64 74 68 70 89 96 95 95 94
58 58 70 84 87 84 85 83 78 79 76 74 70 65 66 62 65 70 67 75 80 82 88 89 91 87 86 71 67 68 65 68 69 78 94 98 98 97
67 69 73 89 83 79 76 75 65 80 79 77 68 66 59 65 73 77 79 81 84 82 81 91 91 88 90 90 84 80 83 79 80 75 75 80 86 98
68 72 82 84 74 70 67 69 73 79 72 61 66 72 81 85 86 91 95 96 93 96 93 93 95 92 90 94 92 88 90 88 82 76 77 73 74 88
76 86 84 76 74 57 56 69 70 63 65 72 76 78 82 88 90 93 94 94 95 94 94 93 93 94 98 97 93 92 94 86 82 84 73 84 79 76
78 80 56 54 54 59 57 60 67 72 80 82 82 89 92 97 99 98 95 94 91 87 84 87 92 93 100 100 100 97 98 98 84 89 93 89 85 83
80 79 54 56 61 63 66 75 80 83 89 92 93 94 96 99 96 94 91 90 97 94 91 88 84 85 90 96 99 98 98 100 100 98 100 100 99 98
80 80 59 58 65 73 81 85 87 89 89 91 94 93 93 93 92 92 91 92 100 100 94 87 87 96 98 90 97 100 99 98 99 99 98 100 96 95
65 60 64 66 69 72 75 81 85 88 90 90 92 95 95 94 95 94 95 97 100 100 94 89 90 99 95 93 76 75 77 89 94 98 96 93 96 94
76 73 71 69 70 72 72 74 78 85 89 88 91 91 92 93 95 97 99 100 100 99 97 94 98 99 97 91 91 88 86 87 93 96 96 97 97 100
76 74 70 69 70 73 76 79 81 82 86 95 98 91 95 94 96 96 96 98 95 98 97 96 88 94 97 98 95 86 81 81 89 95 95 95 93 90
63 63 66 69 73 76 77 76 78 77 77 78 80 83 86 91 99 100 100 100 100 100 98 98 94 98 100 100 92 91 90 87 86 90 91 92 95 94
57 60 62 66 68 70 72 72 74 72 71 71 73 75 78 88 89 95 100 100 100 100 99 99 98 98 98 99 94 93 91 91 90 91 87 86 90 89

GFSNE_925_rhum_063.txt.gz
RH
90 86 96 100 91 97 100 100 99 99 96 84 83 76 82 90 95 93 93 92 97 97 97 97 99 99 99 98 98 98 99 97 99 99 98 97 93 88
89 89 86 84 84 98 99 100 100 100 99 93 94 96 96 100 100 100 99 98 99 99 99 96 98 98 99 98 98 99 99 99 100 99 97 95 89 81
99 99 100 100 99 99 99 99 99 100 100 100 99 98 97 100 99 100 100 100 99 99 100 99 96 94 98 98 100 100 100 98 96 91 87 84 79 76
98 98 98 97 96 95 93 92 94 97 99 100 99 99 98 99 99 100 100 99 100 100 99 99 99 99 98 100 99 98 94 89 88 82 79 78 78 76
94 93 93 92 90 90 88 87 91 96 100 100 100 100 100 100 100 98 99 98 98 98 99 98 98 98 98 99 91 84 81 79 78 81 80 81 81 79
99 98 96 94 94 95 95 94 94 94 97 97 99 99 100 100 100 100 100 99 100 99 96 90 81 78 80 80 81 80 81 84 88 86 84 82 83 82
100 99 100 100 100 99 95 94 94 94 94 95 99 99 100 99 100 96 98 86 74 71 65 65 63 59 55 50 51 52 70 79 81 82 84 82 79 78
95 94 95 93 94 93 92 94 96 90 81 89 90 86 82 81 80 80 77 72 68 66 63 59 57 49 41 39 44 50 65 82 88 87 85 85 82 83
57 50 50 62 64 54 54 56 58 74 89 77 83 80 74 72 71 70 72 72 71 69 72 65 48 43 48 58 60 65 84 89 89 90 89 90 87 87
50 51 49 63 84 86 67 66 72 71 78 74 72 70 72 73 76 80 81 81 79 71 70 84 67 66 56 57 58 57 64 90 94 92 93 94 95 94
50 59 81 77 85 88 83 73 73 81 83 86 83 85 86 85 86 84 88 89 89 75 77 84 83 84 65 56 61 79 97 94 83 91 92 95 96 96
56 57 59 86 84 81 79 78 69 65 77 75 69 66 67 62 65 77 73 76 84 80 88 91 92 89 84 71 70 70 76 67 67 71 88 94 96 97
59 60 67 86 83 77 74 70 70 78 79 77 60 61 62 65 78 82 83 84 84 81 84 95 89 88 89 90 83 70 67 66 68 69 68 72 90 98
68 70 78 82 80 76 66 69 69 77 74 57 68 75 82 88 89 88 90 95 96 95 90 91 98 94 89 94 89 85 81 81 82 78 74 73 73 75
70 86 83 70 66 53 55 69 70 61 67 74 81 81 86 90 91 93 95 94 93 93 96 93 91 93 98 99 97 94 93 88 84 81 83 76 79 77
77 82 73 50 52 63 57 64 70 74 81 87 84 93 93 95 98 97 94 93 93 90 83 83 85 95 99 99 100 98 96 98 86 90 97 96 91 81
83 82 78 52 52 55 65 74 79 83 89 92 93 94 94 94 95 95 95 92 95 92 90 81 82 87 89 92 100 98 98 98 98 100 100 100 100 99
85 62 60 62 62 65 70 73 78 87 88 88 90 90 90 92 93 94 93 93 96 99 97 86 85 93 93 84 90 100 100 100 99 98 100 100 99 97
86 70 70 67 65 67 70 71 73 75 88 90 86 87 90 91 94 91 96 96 99 99 94 90 92 100 96 94 78 76 82 82 85 89 92 100 100 91
79 81 77 73 70 70 72 74 75 76 77 80 86 95 95 90 94 93 92 94 97 99 94 94 96 96 96 92 90 87 83 83 84 93 95 96 96 99
54 71 70 65 66 68 71 75 79 78 77 81 84 85 86 91 98 98 100 95 91 93 98 94 88 97 97 98 96 89 83 82 91 94 98 100 97 95
48 54 54 57 61 64 67 70 72 70 68 69 70 71 70 76 85 88 94 99 100 100 100 98 96 100 99 98 93 91 89 88 85 92 94 94 96 92
47 50 52 55 56 59 63 66 69 69 69 71 76 78 83 91 93 96 99 100 100 100 100 100 100 100 99 99 95 93 93 93 92 93 91 89 94 93

GFSNE_925_rhum_066.txt.gz
RH
95 93 96 99 96 95 98 99 98 99 96 88 88 85 87 88 91 93 90 91 91 99 99 99 93 97 98 99 98 100 100 98 97 84 96 98 100 98
89 91 93 97 96 94 89 97 100 100 97 98 95 97 95 98 100 96 95 98 92 97 97 89 100 100 98 97 99 99 98 87 93 99 99 99 98 98
98 97 97 98 99 96 95 96 97 98 99 99 100 97 96 98 100 100 100 99 100 100 98 91 96 91 87 98 98 94 98 100 98 99 98 97 94 93
99 97 97 96 94 93 93 95 96 96 99 100 99 98 98 99 99 100 99 95 98 99 98 92 99 97 98 99 96 96 99 99 98 97 95 91 85 80
91 89 90 91 92 92 92 93 93 94 97 100 100 99 99 100 100 99 99 99 96 95 96 98 99 99 99 98 98 99 97 92 88 86 83 82 81 82
99 99 97 94 94 93 92 92 93 91 92 96 99 99 99 99 99 100 99 99 98 95 95 98 95 98 96 90 88 84 83 84 84 86 89 87 85 83
100 99 99 100 100 99 95 92 86 83 85 90 94 96 99 96 99 92 95 84 74 71 68 68 70 68 64 61 60 58 56 72 80 82 82 83 83 81
84 83 82 72 80 86 90 86 88 83 75 83 86 83 80 76 75 78 78 72 67 65 64 59 58 53 46 40 37 37 41 66 77 81 86 86 82 81
42 44 57 74 76 54 50 52 52 65 80 61 69 77 76 75 74 74 75 75 73 71 74 66 56 47 53 50 53 71 88 90 91 90 90 88 86 84
54 63 59 82 86 81 65 56 67 76 88 81 78 77 78 82 84 83 83 85 77 73 72 86 72 65 60 59 58 58 60 87 92 93 91 92 92 93
52 70 82 78 83 84 78 68 58 68 79 82 79 77 82 78 83 81 84 84 83 74 78 81 87 81 67 62 59 68 95 96 98 97 97 95 96 95
53 53 59 86 86 81 75 74 61 65 74 73 65 56 58 63 59 70 79 72 79 79 85 89 91 88 82 74 74 72 88 92 75 67 69 96 94 95
59 58 62 87 86 80 75 61 68 76 79 73 56 59 64 67 76 83 86 89 90 84 88 98 92 85 86 86 83 73 70 68 69 67 64 62 63 92
60 62 77 77 74 78 66 67 74 78 69 56 68 74 78 86 91 91 90 91 94 96 93 95 98 96 92 95 91 83 79 73 71 61 62 69 72 82
66 88 81 63 52 44 56 75 70 59 67 73 83 82 84 89 92 93 99 95 98 96 94 95 95 95 100 100 98 97 95 87 84 81 86 84 80 75
76 82 78 65 47 52 49 56 67 75 85 90 87 93 92 92 96 97 94 95 92 90 87 86 86 91 98 99 100 100 100 98 84 85 87 99 100 96
84 83 62 56 52 52 54 60 71 78 88 93 93 90 90 91 90 92 91 90 95 93 92 79 80 87 89 92 100 99 92 97 91 88 99 100 95 99
84 82 63 59 58 59 62 66 66 76 82 90 90 88 87 87 89 92 88 93 99 94 94 85 84 90 90 78 76 79 86 97 91 94 93 100 97 93
83 84 77 74 70 66 66 70 71 70 73 73 89 92 88 86 93 88 90 94 96 94 84 86 91 100 97 95 79 79 87 87 88 90 88 95 100 80
58 55 64 74 75 70 66 68 68 70 73 72 74 76 80 91 99 100 99 95 98 97 98 94 95 95 96 93 93 88 83 81 86 93 89 89 90 96
49 44 46 62 61 57 60 65 70 72 69 66 67 71 73 78 81 85 86 95 93 97 99 94 85 95 97 98 97 90 83 81 92 96 97 100 99 94
52 44 40 46 50 53 56 59 62 64 64 67 68 70 71 78 82 85 89 94 98 97 97 92 90 94 100 99 92 90 89 87 82 91 94 94 96 93
42 42 41 44 45 48 52 57 63 65 68 72 80 86 94 98 98 97 96 96 96 98 99 100 97 100 100 100 97 95 95 94 94 94 89 89 94 94

GFSNE_925_rhum_069.txt.gz
RH
100 98 99 100 99 96 98 99 91 89 94 92 89 86 89 87 87 88 90 92 98 88 98 100 99 100 100 92 91 91 90 100 90 100 96 98 98 99
93 90 90 94 96 95 96 100 99 100 97 99 99 100 92 92 94 99 100 99 99 97 89 100 92 96 98 100 100 100 99 96 95 98 99 98 99 96
99 99 99 98 99 96 96 97 98 99 100 100 100 95 96 96 98 100 99 100 99 100 100 100 97 90 89 89 88 90 86 92 93 92 93 99 94 96
99 95 94 95 93 93 91 90 91 91 96 100 99 96 95 94 95 98 98 96 95 98 100 100 93 85 92 91 92 91 92 94 96 97 99 95 97 94
91 90 90 89 90 90 88 88 89 90 92 99 100 98 96 94 96 94 93 91 91 92 92 94 96 98 96 95 96 97 97 98 99 97 92 91 90 87
98 96 94 92 92 90 88 88 89 89 91 99 100 100 98 96 97 100 97 89 86 85 85 90 91 93 98 96 95 96 92 90 89 88 88 91 91 89
98 97 95 95 95 97 95 87 80 77 87 94 92 93 89 86 90 87 84 76 70 63 62 60 60 62 63 66 70 76 78 77 73 83 86 83 83 85
88 85 80 74 72 85 88 79 84 71 61 84 87 75 77 78 79 79 80 70 64 64 66 62 51 47 43 41 39 38 36 36 57 73 79 84 86 82
39 45 58 73 63 50 47 50 56 86 76 62 71 76 76 75 72 76 81 79 72 75 77 64 53 56 45 50 47 36 57 80 88 89 89 84 85 85
56 60 71 84 88 72 60 50 59 79 92 85 82 87 87 90 90 86 84 83 77 80 70 72 74 72 69 61 55 55 62 87 92 92 90 87 86 89
52 73 74 77 84 86 72 61 50 54 74 77 76 76 80 75 84 82 90 86 69 76 84 91 88 88 83 78 70 81 96 98 95 93 94 95 96 95
49 50 66 87 83 79 76 64 58 72 72 68 55 47 48 54 60 62 70 84 83 79 90 96 95 92 88 76 74 73 86 94 94 95 90 93 98 92
51 51 56 87 78 82 79 58 72 78 77 67 48 57 62 66 75 84 87 90 94 96 94 98 98 93 88 86 87 83 81 76 73 73 70 67 68 79
49 55 68 75 71 72 62 69 82 75 58 56 64 71 74 80 86 88 91 93 95 94 91 93 100 99 94 90 84 84 90 85 73 71 75 71 73 84
56 76 82 66 50 42 58 79 58 56 64 71 82 82 84 87 89 91 99 98 93 93 95 93 98 99 100 96 94 95 97 94 97 97 80 72 76 75
70 79 76 66 52 45 43 48 57 67 79 87 87 86 91 88 96 95 99 99 100 100 83 87 90 89 100 100 100 100 97 99 91 94 96 97 98 98
87 84 73 52 49 49 50 52 55 64 76 86 88 94 94 91 93 95 98 99 100 98 97 97 80 82 84 86 100 97 92 92 97 98 100 100 99 99
85 84 78 66 62 56 56 58 58 61 64 72 84 91 96 95 95 94 98 100 95 94 97 99 88 91 91 74 69 75 91 94 91 100 100 100 100 85
78 77 77 73 67 67 64 62 59 60 66 66 68 70 80 88 99 99 98 97 92 90 96 99 100 100 93 90 77 89 95 96 98 96 96 97 100 86
68 61 51 47 54 66 65 61 59 62 64 67 68 68 70 76 88 99 97 98 96 93 95 100 100 100 97 88 88 87 87 87 88 92 93 93 96 98
52 47 46 42 44 54 52 53 57 60 61 64 62 64 67 74 75 76 85 94 93 95 98 95 93 96 98 100 96 88 83 84 88 94 99 100 98 94
37 44 44 41 41 44 47 50 55 57 58 62 64 68 72 80 84 87 93 100 100 100 100 93 92 99 100 100 94 91 88 88 90 93 94 95 96 88
36 39 41 38 38 41 44 48 54 59 64 70 75 80 86 95 95 96 97 100 100 100 100 100 100 100 100 100 99 96 95 94 92 91 90 92 96 96

GFSNE_925_rhum_072.txt.gz
RH
100 100 100 100 100 98 100 100 86 81 66 87 93 91 95 94 82 82 92 100 98 99 79 99 96 98 98 98 92 100 99 94 89 97 96 95 95 91
94 98 99 100 100 99 99 99 100 95 84 98 99 98 90 95 91 94 95 98 99 98 100 100 95 87 87 79 77 100 98 94 90 97 95 93 91 94
99 99 99 100 100 100 99 100 100 100 98 100 100 92 91 98 98 98 97 98 99 100 99 100 99 98 97 97 97 98 100 99 92 85 85 85 89 91
96 95 96 97 98 98 99 96 92 90 99 96 99 98 92 97 99 100 99 97 97 97 97 100 100 97 94 88 89 92 90 84 82 82 87 92 96 95
92 91 94 94 97 98 98 99 99 97 99 94 97 100 100 100 99 100 100 100 98 87 87 89 92 96 96 94 93 91 89 90 92 93 93 95 96 95
98 98 96 97 99 98 98 96 93 90 89 87 93 98 98 100 99 91 82 78 75 73 73 75 84 87 93 95 94 94 94 94 94 94 93 92 92 92
99 98 97 93 93 96 89 85 80 76 81 83 80 79 73 68 69 68 65 63 63 67 61 60 60 61 63 66 75 88 90 90 89 89 94 93 92 86
88 86 81 72 62 70 57 63 76 70 68 68 65 52 56 59 60 64 67 58 56 68 60 50 54 48 49 51 51 38 40 43 50 58 73 76 79 82
44 56 70 72 64 62 49 49 59 88 61 62 54 57 57 67 75 86 72 69 62 57 64 49 50 44 52 57 63 49 43 67 75 79 79 80 84 82
51 70 70 74 86 75 68 64 64 77 85 80 77 80 82 84 83 90 85 72 63 65 71 61 57 60 65 66 70 56 57 84 94 93 90 86 84 87
65 74 71 70 85 84 73 72 48 54 65 66 67 66 72 73 84 76 78 71 61 57 75 78 75 77 75 73 74 70 86 89 92 95 90 87 89 92
55 58 59 81 86 80 71 58 47 59 72 72 56 53 56 64 56 76 77 86 76 75 85 89 89 85 83 77 85 81 75 80 82 85 90 95 98 97
54 53 61 76 77 81 81 59 63 70 72 61 50 58 67 76 82 89 93 99 98 90 90 96 95 94 87 82 80 84 87 84 79 77 83 89 92 94
52 56 68 70 69 61 60 66 78 71 57 52 59 63 71 82 95 98 96 96 100 100 100 98 98 96 94 91 85 82 85 89 94 96 96 96 96 95
61 64 72 64 53 46 43 75 62 57 56 62 67 81 90 100 83 96 100 99 97 100 98 94 100 100 99 98 92 92 92 91 95 100 100 99 96 95
60 80 78 66 49 48 43 51 62 62 66 69 75 81 92 99 94 94 99 100 100 97 98 88 88 97 100 97 96 97 96 94 95 96 97 99 98 95
77 81 76 62 52 50 51 55 59 65 69 75 82 84 83 84 85 89 91 95 95 93 93 95 100 100 98 99 99 92 88 86 90 95 99 99 94 94
89 79 72 67 58 52 50 49 55 63 65 75 81 84 85 85 85 87 90 91 88 83 83 86 91 91 85 82 85 93 87 86 89 94 98 98 98 98
72 71 74 70 66 64 66 68 71 70 75 75 87 88 89 90 89 86 85 85 83 82 83 88 91 93 90 87 74 82 94 94 93 90 89 91 92 91
70 74 73 69 65 64 70 78 80 80 86 89 90 94 95 94 91 88 86 87 84 82 84 89 95 98 94 89 90 85 88 94 95 94 91 92 91 92
70 74 65 62 64 68 73 80 79 84 87 90 92 94 95 96 92 90 89 87 87 90 92 91 91 95 98 97 95 86 82 81 85 97 96 97 94 92
68 62 51 45 50 55 55 68 83 85 79 90 94 95 96 98 98 98 96 97 96 96 96 98 100 100 100 100 93 91 90 85 85 89 92 96 95 84
44 33 30 36 42 43 44 55 60 69 73 73 83 92 96 100 100 100 100 100 100 100 98 97 95 96 98 98 96 94 95 95 90 88 86 88 94 98

GFSNE_925_rhum_075.txt.gz
RH
100 100 100 100 99 99 98 97 89 84 76 94 95 99 95 99 83 96 94 100 100 99 98 98 94 84 80 87 92 92 99 85 100 100 99 91 94 90
98 95 95 95 94 96 99 96 98 93 85 93 100 99 91 98 95 98 92 97 98 98 97 98 95 97 94 96 91 99 99 93 94 93 98 96 93 91
98 94 93 95 97 98 98 98 98 99 92 99 99 94 90 97 100 99 100 94 95 98 100 97 92 91 92 94 99 100 98 98 99 100 100 99 91 89
92 91 92 97 97 96 97 96 95 89 97 95 100 99 95 98 99 99 99 97 99 94 96 96 98 99 92 88 84 85 88 92 93 94 92 92 98 99
88 89 91 92 97 98 99 99 99 96 97 90 93 98 98 99 96 96 94 89 86 74 80 83 87 94 98 98 95 92 92 89 90 92 93 94 98 98
99 98 99 99 99 98 94 89 88 86 85 84 89 94 96 92 89 76 77 72 71 69 66 63 65 70 82 91 94 95 97 96 95 95 94 91 89 88
96 94 92 88 85 85 85 77 72 71 79 77 77 73 67 59 60 60 60 60 58 58 57 54 52 57 58 58 61 67 85 91 91 91 92 94 94 93
91 86 76 67 54 42 36 41 50 69 65 65 60 47 50 53 56 69 67 67 65 61 56 46 48 51 46 50 50 42 34 38 50 66 74 82 84 82
54 64 69 65 65 57 54 61 60 46 45 64 55 58 57 70 71 85 79 78 67 60 56 54 48 50 52 57 65 54 39 36 61 70 74 75 77 80
48 66 65 69 79 72 66 60 57 70 80 74 75 77 79 81 80 82 80 74 67 60 63 64 63 70 69 67 68 64 57 55 71 92 92 90 88 80
55 67 66 64 81 69 70 62 45 52 59 48 49 50 51 53 60 70 82 76 73 55 73 82 81 81 80 78 76 73 70 76 76 91 94 87 87 86
51 54 44 77 79 83 74 59 47 56 66 70 55 50 56 64 50 70 72 90 85 82 87 89 93 93 91 78 80 83 79 78 74 76 79 89 89 88
50 49 56 52 76 77 77 66 58 70 68 61 49 52 62 71 78 86 88 96 94 88 94 90 88 91 88 87 84 78 84 83 84 82 80 86 95 98
50 48 58 58 59 54 50 62 74 62 59 50 54 60 66 76 93 93 89 86 95 99 98 98 91 89 90 88 88 83 84 85 85 88 98 99 98 95
57 58 64 60 52 46 46 51 57 55 53 56 62 72 86 95 91 86 98 100 99 99 99 100 98 95 93 92 93 94 94 89 92 92 99 100 96 96
60 52 70 69 59 47 43 46 48 55 59 63 68 75 84 91 93 93 88 97 97 98 92 97 91 94 100 100 98 96 96 93 88 89 92 93 98 97
72 74 77 72 55 49 47 48 51 56 63 69 72 82 83 84 86 86 91 91 91 89 88 85 87 97 99 99 100 97 92 95 92 92 91 94 98 100
80 79 74 70 63 55 48 46 46 53 59 65 76 81 84 85 86 86 88 90 92 92 88 85 86 87 88 78 78 84 91 90 92 90 94 94 95 96
88 81 74 73 70 66 62 61 63 68 70 71 80 84 88 90 90 90 89 89 90 88 86 86 91 89 89 93 81 82 85 88 95 93 89 93 96 94
74 73 73 74 72 66 61 64 70 75 75 76 82 86 90 91 92 92 92 91 91 89 88 87 88 90 97 90 90 86 82 89 93 98 99 93 91 94
70 72 71 68 64 55 52 57 69 75 76 81 85 85 84 88 90 91 92 87 88 90 94 92 94 98 98 99 98 91 85 82 84 89 90 99 96 95
72 68 66 62 54 48 50 56 63 70 69 70 75 78 84 90 93 94 93 95 96 96 94 95 94 94 94 97 93 91 92 91 87 88 93 93 96 91
79 73 67 63 45 37 46 53 56 62 66 68 73 78 83 90 92 96 100 100 98 99 96 96 94 91 92 94 93 96 92 92 93 94 91 87 92 93

GFSNE_925_rhum_078.txt.gz
RH
96 98 99 100 100 98 98 100 95 93 90 98 98 98 91 90 88 86 88 99 98 96 93 94 96 100 99 96 99 98 99 92 97 94 100 94 98 100
93 99 98 94 92 91 91 95 95 97 94 96 99 98 93 98 97 98 97 97 98 98 98 95 92 97 100 99 97 92 99 98 96 98 100 100 100 99
94 96 93 92 94 92 97 98 95 97 96 100 100 96 96 93 98 99 99 94 98 95 97 93 89 86 90 85 95 99 96 95 95 93 93 96 95 93
92 90 92 95 95 97 97 96 95 90 96 91 98 99 98 99 98 98 97 95 91 77 84 88 89 93 93 97 91 86 93 100 100 100 100 99 97 93
88 89 92 94 95 93 96 98 98 96 96 88 93 96 95 98 82 79 88 77 74 70 67 64 74 84 91 95 95 94 92 91 90 89 90 91 95 99
94 95 95 96 99 93 89 85 84 85 84 83 87 90 92 83 79 66 61 63 61 60 56 63 55 61 61 67 84 92 95 96 98 100 98 94 91 90
97 94 90 85 84 86 83 73 69 73 78 74 76 75 64 57 58 62 58 53 66 62 50 52 51 48 53 53 55 58 74 88 91 93 94 95 94 89
87 81 70 52 43 33 34 44 38 57 52 64 55 52 56 58 63 57 71 69 69 63 56 37 50 44 44 46 48 45 32 31 45 73 83 86 89 93
62 54 59 60 56 55 63 68 58 53 59 63 59 60 67 71 67 80 76 76 72 64 58 46 61 54 64 65 67 66 55 53 61 67 59 64 71 76
51 65 67 75 69 60 54 48 48 57 53 66 71 76 76 80 80 80 77 78 69 69 61 68 74 72 60 69 72 66 94 85 91 91 94 92 90 89
54 58 62 66 74 54 66 53 46 49 52 50 47 44 41 44 50 55 79 80 77 69 77 71 88 78 71 81 73 81 86 81 71 78 91 95 86 86
45 46 46 70 70 77 66 63 48 61 61 64 55 49 48 56 50 68 73 79 89 88 91 82 83 89 88 85 82 77 79 77 90 89 86 86 87 92
48 49 50 48 55 62 74 70 55 65 70 58 48 49 61 69 78 80 76 83 90 87 96 93 87 86 87 87 84 81 88 91 86 82 79 82 93 90
49 47 50 55 48 46 43 59 60 56 54 50 51 58 62 76 86 87 85 87 94 97 98 98 94 90 88 96 87 80 78 74 80 88 97 99 99 97
51 49 52 60 51 45 44 40 49 43 51 52 58 65 73 81 88 88 84 98 98 99 99 99 100 100 98 92 94 94 94 87 80 86 78 93 99 98
60 52 49 57 63 54 54 42 40 41 53 58 64 71 78 83 79 88 95 88 88 91 90 94 98 95 95 96 98 98 98 96 69 68 76 84 88 97
61 60 66 67 63 52 46 43 43 47 52 54 63 71 76 83 85 86 89 90 94 91 87 81 86 87 93 94 99 100 88 83 74 80 92 90 87 94
72 71 67 66 68 62 52 47 44 47 50 54 63 71 77 83 84 85 88 89 91 89 91 89 88 89 91 81 77 83 87 85 80 85 89 91 91 83
71 80 71 75 72 69 64 58 53 49 55 62 62 65 72 80 82 86 89 88 88 90 89 85 88 93 89 90 82 78 86 85 93 98 95 90 93 86
73 84 82 77 71 69 66 63 54 55 63 67 68 62 58 68 78 77 81 86 88 88 92 90 88 88 93 89 87 84 81 82 83 83 86 84 85 89
68 77 74 67 63 64 65 58 50 52 61 70 72 74 73 79 83 80 80 90 90 90 92 92 90 94 98 98 97 93 88 83 90 95 99 99 98 93
70 66 61 57 57 58 57 52 48 53 59 65 72 74 73 73 78 80 84 88 89 88 89 91 94 91 91 99 94 92 91 91 87 83 91 98 99 93
76 77 75 72 64 62 58 48 44 52 54 53 55 59 63 76 80 86 92 97 100 100 96 98 95 94 99 99 92 94 94 94 96 96 86 79 87 99

GFSNE_925_rhum_081.txt.gz
RH
84 86 94 94 98 98 100 94 97 98 99 100 100 99 94 93 90 86 85 95 98 96 92 90 94 98 98 94 98 88 92 97 93 94 93 84 94 96
89 87 92 96 96 94 93 95 95 96 95 100 100 99 95 96 96 97 90 93 96 95 94 94 94 94 99 99 99 95 99 99 94 95 92 98 96 100
86 92 96 96 94 92 93 95 96 93 96 100 99 97 94 93 95 99 99 91 91 87 97 95 90 91 87 90 96 99 98 96 99 100 100 100 100 98
92 90 92 94 91 93 89 97 95 97 93 99 100 97 99 98 98 92 89 86 73 77 79 79 89 98 93 89 96 84 92 100 99 92 95 99 99 98
89 88 92 95 95 95 95 96 94 95 93 89 96 94 94 92 84 79 89 79 72 66 64 62 65 74 81 88 90 91 86 85 86 90 94 95 95 95
92 93 95 96 96 90 87 86 89 91 90 89 88 88 90 90 81 64 61 60 59 60 50 60 53 55 68 58 67 86 92 93 96 98 93 90 89 91
97 96 91 89 89 88 81 74 74 79 82 87 85 86 71 60 57 60 54 53 63 58 49 37 45 46 48 48 45 42 48 80 90 92 93 92 92 89
91 87 74 48 39 37 57 46 38 48 55 68 59 57 60 60 62 58 69 66 71 62 50 51 50 47 52 57 58 54 48 30 37 70 85 87 91 96
84 60 50 53 50 57 72 65 75 71 57 51 53 57 65 70 67 75 68 66 66 65 61 50 61 60 64 66 72 73 74 45 40 38 46 49 60 69
53 62 65 66 60 53 47 42 50 48 50 55 61 68 71 76 76 73 75 77 73 71 66 62 66 65 60 71 78 78 88 93 95 90 89 94 92 89
56 62 64 67 70 54 52 46 46 52 51 48 44 41 39 42 46 51 72 78 77 75 79 79 78 69 75 81 80 86 79 90 80 81 79 91 91 84
54 58 61 66 75 72 63 53 48 58 60 56 50 47 44 53 49 54 68 72 88 90 92 86 84 77 73 85 83 72 71 79 82 91 92 97 90 90
43 44 47 54 54 64 71 65 51 58 70 58 45 46 56 63 70 72 68 71 84 87 95 95 89 87 87 86 75 80 85 76 80 81 79 75 74 96
45 43 44 55 48 44 48 53 63 60 52 50 46 52 59 67 76 79 80 84 89 87 94 95 96 94 93 90 88 81 73 66 77 84 75 75 82 93
44 45 46 59 56 47 45 45 64 48 42 48 51 59 65 71 80 89 86 81 84 91 96 100 99 99 98 94 95 94 95 84 75 84 64 65 82 84
57 58 59 56 55 53 51 59 50 38 37 49 55 64 70 78 82 80 84 92 91 85 78 90 92 97 96 96 93 97 94 95 67 63 71 72 76 83
73 68 61 68 73 62 53 42 38 38 45 53 54 58 69 74 79 84 87 90 95 90 85 77 83 89 92 94 99 98 92 88 72 76 83 83 80 82
84 69 60 60 61 58 57 48 44 42 41 42 45 53 64 73 80 84 86 90 91 89 88 86 90 90 89 85 78 90 88 86 81 86 92 97 92 76
74 76 74 64 57 59 67 63 55 48 46 46 48 53 59 67 74 82 85 90 92 90 84 86 88 92 97 93 81 87 85 81 85 88 84 85 89 80
65 67 66 62 58 61 63 64 62 57 56 53 57 62 64 66 69 68 74 80 79 78 80 81 90 92 94 92 83 82 84 85 85 84 87 89 86 80
54 62 61 58 62 65 57 56 60 58 51 50 54 62 66 67 66 67 72 88 88 90 93 92 85 87 95 98 98 92 87 84 88 94 97 100 99 95
73 58 53 51 51 55 54 56 60 64 54 49 53 61 65 70 74 75 73 77 78 80 83 85 85 92 97 99 94 94 91 90 87 90 96 99 99 94
77 67 60 68 72 56 61 64 62 60 52 62 54 52 59 67 66 70 75 80 88 96 95 97 95 96 100 99 95 96 94 93 94 92 81 71 88 100

GFSNE_925_rhum_084.txt.gz
RH
96 89 83 83 90 92 98 99 95 96 99 100 100 100 96 93 93 85 83 100 98 96 92 90 93 95 96 89 97 93 96 98 98 99 94 89 76 87
94 92 88 84 89 95 93 94 99 98 97 99 100 100 100 99 95 93 91 94 94 95 94 94 93 92 97 99 98 97 99 99 99 86 81 90 79 87
93 88 86 89 96 96 93 93 92 94 97 100 100 100 98 96 96 99 97 90 83 90 97 93 92 96 90 99 96 97 98 100 99 100 90 96 98 100
93 88 90 91 98 94 91 95 89 89 96 99 100 100 99 99 98 93 92 78 72 77 75 84 91 100 98 90 88 84 88 92 98 100 100 100 100 100
91 87 87 90 94 94 94 93 95 94 95 92 98 94 94 94 90 89 87 78 70 60 59 61 72 79 82 83 84 88 86 83 86 92 96 95 95 94
90 91 92 95 94 92 92 92 98 96 94 89 89 91 92 90 82 78 70 63 60 58 51 54 49 51 76 53 53 67 86 90 89 86 84 86 88 90
94 95 94 92 90 89 82 79 83 88 92 91 88 88 86 69 61 58 53 48 56 56 44 38 45 45 46 44 43 35 33 64 88 90 90 89 86 85
98 90 79 66 73 82 80 57 56 67 79 83 77 80 67 60 60 56 62 57 63 63 50 52 52 51 56 60 75 73 48 31 36 70 86 88 92 93
88 78 54 40 43 60 78 74 79 51 41 52 54 51 57 58 59 63 62 58 59 65 59 48 61 61 61 65 86 86 88 76 52 38 40 44 55 70
82 54 52 54 51 49 44 46 49 44 47 48 51 54 60 63 66 66 68 72 74 72 66 59 61 63 60 73 88 95 94 91 90 97 96 94 88 79
55 59 64 68 79 54 45 41 46 53 50 40 41 42 46 52 49 53 66 72 77 73 77 78 77 65 76 80 80 75 72 97 96 98 87 75 85 89
54 58 59 60 84 70 55 49 44 52 58 58 55 52 44 63 50 46 60 65 84 87 90 82 83 76 70 86 83 76 72 76 75 77 81 89 86 87
46 53 59 78 74 68 65 60 47 55 61 53 44 44 53 58 62 62 58 60 71 81 100 88 90 86 88 86 75 77 81 72 60 65 71 71 75 92
40 41 42 53 57 57 75 55 66 68 54 56 45 47 55 61 68 73 74 71 72 75 85 93 92 94 95 91 90 81 72 61 74 77 69 74 75 91
46 42 40 52 59 61 56 50 70 60 48 48 46 50 56 62 72 82 86 81 71 79 85 93 98 96 97 92 92 95 95 61 66 65 70 62 63 61
61 46 48 62 66 55 49 62 59 47 41 38 45 51 62 69 78 87 76 82 92 90 77 81 93 92 96 95 95 98 93 93 63 62 70 73 72 75
91 67 68 72 73 69 63 57 51 41 41 41 48 53 61 73 79 78 84 89 96 91 88 82 83 84 89 92 99 97 89 88 79 80 85 85 76 72
94 83 73 66 63 64 65 55 46 42 40 41 45 47 53 68 70 76 83 87 90 91 91 86 80 88 82 69 66 85 88 75 75 82 87 94 80 70
80 88 80 68 58 54 54 54 57 48 44 44 44 44 47 50 62 70 78 84 88 91 92 90 86 91 100 98 73 79 86 80 86 80 80 84 85 75
71 81 75 66 59 56 55 52 57 62 64 58 52 47 54 57 61 67 72 76 78 79 81 78 80 84 96 94 78 78 83 84 85 84 84 85 86 77
61 68 70 70 60 55 52 55 63 60 62 62 55 52 55 62 68 68 66 72 86 88 90 83 73 83 91 99 100 95 88 84 88 92 96 100 97 94
72 63 58 58 54 56 54 59 66 63 64 66 61 50 74 63 70 72 72 74 71 73 75 73 79 85 90 100 97 94 91 85 83 92 95 96 97 93
91 85 82 76 73 98 99 97 93 66 63 63 64 54 91 75 79 73 74 74 74 76 78 85 86 93 97 97 96 99 99 93 91 89 80 73 73 90

GFSNE_925_rhum_087.txt.gz
RH
80 99 97 90 86 84 88 98 100 85 98 100 100 99 98 93 91 88 86 99 98 97 90 88 90 90 97 94 99 97 86 90 96 98 94 95 92 87
82 94 96 91 88 85 87 96 100 100 98 99 99 100 100 99 98 91 84 91 92 95 93 91 94 91 92 99 98 100 98 93 96 96 80 86 87 83
81 94 92 88 87 89 94 96 96 98 99 100 100 100 100 99 98 92 92 88 84 91 94 92 93 91 94 95 96 93 94 97 99 99 98 85 92 92
86 96 88 87 86 96 95 90 89 92 94 99 100 100 100 100 100 96 94 75 75 83 84 89 90 96 96 96 88 86 86 90 93 99 100 99 100 100
91 95 90 87 88 90 93 88 88 90 96 100 100 99 98 96 94 94 92 78 70 61 58 63 70 85 92 79 76 84 86 84 90 91 94 96 99 99
90 92 91 90 95 95 96 98 99 98 96 95 95 96 94 91 84 84 78 70 64 57 52 52 48 54 59 46 41 47 74 87 90 95 87 90 93 97
93 93 90 92 90 91 85 82 84 97 96 94 90 92 90 88 76 64 62 54 53 52 46 41 43 44 42 44 57 50 34 56 84 88 91 88 83 84
96 95 90 87 87 87 81 69 70 80 86 92 88 88 81 69 61 56 53 55 61 63 50 49 50 52 55 60 88 96 68 48 43 65 84 86 87 88
96 91 78 56 53 65 78 78 56 49 49 73 80 73 69 57 55 58 58 56 56 60 58 49 59 60 58 67 93 96 98 97 83 48 39 40 50 67
90 82 56 47 46 49 45 52 44 40 45 46 48 48 52 55 60 59 59 63 68 68 66 58 60 63 58 72 99 99 98 91 92 90 97 92 83 82
88 65 56 61 67 52 45 40 45 50 45 36 42 46 49 51 53 55 60 75 75 72 74 76 73 62 69 77 77 71 86 100 100 99 99 96 94 85
58 53 64 68 81 84 52 44 45 54 53 52 55 50 44 69 55 42 51 67 75 83 83 77 78 69 70 85 81 75 72 69 70 70 69 74 76 71
47 53 60 84 85 81 77 57 46 48 55 52 46 44 46 52 54 55 55 53 60 73 83 80 84 82 81 79 74 74 79 73 67 58 63 69 76 92
40 39 45 56 78 71 80 57 62 58 55 61 46 42 46 53 60 64 65 65 65 68 79 89 86 86 91 91 86 78 75 64 61 70 70 71 58 53
42 42 42 43 77 71 71 48 71 72 55 51 46 42 43 50 64 72 76 77 70 72 74 80 89 95 93 93 94 92 87 60 63 56 64 58 60 62
66 49 45 46 72 67 57 62 66 62 57 44 38 41 50 61 69 77 83 73 74 72 75 72 84 93 94 94 94 93 88 93 60 63 68 63 69 73
82 84 58 70 75 72 63 55 50 60 55 46 40 47 52 66 78 85 84 82 84 77 75 84 86 85 85 86 95 89 81 79 68 73 79 76 68 71
100 96 85 64 64 61 61 60 59 56 46 39 43 52 56 56 71 80 81 82 85 84 84 84 85 80 79 59 57 72 84 84 73 81 84 86 76 64
89 95 90 82 72 64 59 53 52 47 47 44 43 42 43 46 59 74 77 77 82 82 83 87 93 90 100 97 61 79 81 76 85 85 78 79 80 75
72 84 82 73 66 63 59 54 49 50 57 58 52 47 46 49 51 60 69 71 74 75 80 82 79 79 92 86 71 71 78 81 81 80 80 80 80 72
72 74 73 67 63 61 58 57 53 53 52 61 63 62 55 53 55 61 64 79 81 75 79 72 59 74 85 96 100 93 83 82 83 83 89 97 96 92
62 60 58 58 58 57 54 58 64 65 64 71 66 65 62 56 70 81 65 68 67 76 80 75 78 82 88 95 95 93 93 92 86 82 92 96 94 94
94 86 82 77 73 70 66 68 88 98 96 79 72 68 69 64 80 97 83 74 85 81 77 88 94 96 90 91 98 100 100 99 94 87 78 72 70 82

GFSNE_925_rhum_090.txt.gz
RH
69 82 100 99 95 91 94 100 97 92 96 100 99 99 98 97 92 89 86 99 94 96 94 92 88 90 94 96 100 99 92 88 87 90 97 89 86 90
76 85 96 98 94 91 91 92 94 100 96 99 100 100 99 96 96 92 87 92 90 98 94 91 97 93 95 99 98 99 100 85 88 99 82 79 84 90
78 85 94 93 89 89 93 95 96 100 100 100 99 100 100 100 98 95 94 86 87 90 93 92 93 94 94 99 100 92 100 82 98 93 99 81 83 90
81 90 96 88 88 85 88 95 96 95 98 100 100 100 100 100 99 98 92 78 77 86 80 92 90 95 98 93 87 86 86 84 92 99 100 100 99 94
88 92 94 86 86 87 88 90 89 90 94 100 100 100 100 100 100 99 93 79 71 64 59 59 74 94 86 73 63 75 86 84 86 92 97 100 100 100
91 90 89 87 87 88 89 91 94 95 97 100 100 100 98 96 91 90 87 79 71 64 53 50 49 57 53 41 36 38 62 87 89 85 90 92 98 99
87 92 88 88 92 93 92 87 86 93 98 100 96 96 94 91 86 77 82 73 57 50 46 43 43 46 45 52 67 52 44 68 86 88 85 85 85 89
94 93 91 92 89 88 84 76 74 85 93 98 92 89 88 84 76 64 55 54 54 60 51 46 50 53 54 64 96 97 96 68 61 71 84 86 86 85
96 94 88 71 60 63 65 71 61 54 60 83 90 86 84 75 62 56 54 53 52 56 53 49 60 60 57 76 97 97 97 98 95 80 65 52 65 77
97 92 82 62 43 48 51 51 43 39 40 43 50 60 52 51 52 49 49 52 63 66 62 58 59 61 60 81 99 99 97 98 97 97 98 98 93 88
95 88 75 52 55 69 48 42 45 49 42 49 52 55 54 56 56 54 58 67 71 69 70 68 71 62 66 78 79 80 100 99 100 100 100 100 90 82
92 81 60 60 67 90 50 43 43 51 57 47 51 46 46 82 45 38 42 55 62 77 74 73 75 65 71 84 81 77 75 69 66 66 64 66 74 61
69 50 50 78 70 87 82 57 48 43 54 56 53 48 44 50 46 46 52 51 49 62 70 70 75 72 69 69 71 77 74 70 67 62 58 68 63 61
34 37 43 55 86 84 77 70 60 63 58 56 46 41 44 50 57 60 60 58 60 61 67 69 72 74 74 75 71 71 74 63 60 62 63 67 60 48
41 39 41 41 51 77 74 66 77 79 64 55 53 44 41 47 60 70 72 74 71 62 73 79 69 77 90 89 85 82 82 64 58 55 53 64 56 51
73 57 48 47 49 74 66 70 65 68 66 53 43 42 45 50 59 70 80 82 70 73 79 74 74 83 85 87 89 86 78 85 61 62 65 61 58 62
76 73 61 60 64 78 72 62 54 60 62 52 45 39 43 51 62 72 83 85 77 74 74 79 82 81 80 81 85 70 65 68 60 68 76 74 64 67
93 84 84 72 63 68 71 66 60 53 50 55 53 45 41 45 51 68 82 85 85 82 80 78 84 85 74 49 53 67 69 67 64 73 77 80 71 63
98 100 99 94 86 71 61 59 56 49 53 56 50 40 42 49 58 64 68 79 80 79 82 82 85 90 96 89 52 62 69 69 77 83 81 79 78 75
80 94 95 90 79 70 68 65 58 54 52 53 54 51 46 45 50 58 61 68 69 72 76 73 73 77 87 78 60 64 79 75 78 77 79 79 75 72
88 80 85 90 71 57 55 57 58 55 54 56 55 59 56 53 52 52 51 62 73 75 83 70 51 60 69 83 94 88 74 77 78 79 82 94 93 85
78 74 76 74 65 59 60 61 62 64 66 63 60 61 64 65 62 55 53 57 68 87 87 74 79 80 90 92 92 90 86 90 85 86 97 98 97 95
88 93 86 68 66 63 64 65 66 64 78 74 73 82 72 71 68 66 57 79 97 80 74 80 85 88 95 95 96 95 93 95 96 88 75 73 72 84

GFSNE_925_rhum_093.txt.gz
RH
58 62 71 86 100 98 98 99 91 78 73 98 99 100 100 99 96 91 89 90 94 97 96 91 89 97 97 92 94 98 98 85 88 93 93 89 93 94
66 66 78 91 96 96 94 95 99 97 87 98 99 99 100 100 98 94 89 91 93 100 95 92 92 95 97 95 98 99 100 91 91 90 92 76 84 86
66 70 80 90 92 91 90 92 98 100 99 100 100 100 100 100 99 98 95 88 91 93 96 96 91 94 94 99 100 99 95 86 97 99 95 83 82 82
72 79 90 94 87 88 86 85 95 99 100 100 100 100 100 99 99 98 94 82 84 90 93 92 95 98 94 92 79 82 84 86 91 100 99 99 91 91
82 86 92 94 88 84 85 86 86 90 94 100 100 100 100 100 100 100 98 81 73 69 64 60 86 92 82 63 51 60 82 86 81 94 100 99 100 100
87 88 88 86 84 86 86 89 91 96 97 100 100 100 100 100 100 97 94 87 77 70 60 51 50 52 48 41 38 35 59 87 88 83 93 99 100 100
87 85 86 84 87 91 93 90 88 89 98 100 100 100 99 95 89 86 86 79 70 56 47 45 44 46 46 53 83 76 65 85 86 83 81 88 92 97
88 90 89 91 91 89 84 82 78 81 92 99 98 95 92 89 87 78 72 66 53 51 52 48 47 52 56 68 96 97 96 87 84 82 84 83 81 82
93 93 91 79 77 71 65 66 55 62 68 82 93 90 87 85 76 67 56 51 56 50 49 57 56 57 62 90 95 96 97 98 97 91 66 76 81 81
97 95 91 78 63 48 52 47 42 38 39 43 56 74 79 73 67 52 49 47 51 56 55 68 55 59 61 90 98 98 97 98 98 96 98 84 81 54
97 93 86 74 51 53 50 44 43 46 50 54 51 50 48 51 51 48 51 70 70 69 61 66 64 60 62 77 78 99 98 99 100 100 100 99 76 70
95 92 88 73 53 87 58 42 44 52 54 58 61 59 62 63 49 44 44 51 69 77 63 68 71 63 83 77 76 75 80 67 65 66 70 87 73 63
90 87 78 60 61 89 80 49 44 42 56 54 50 44 50 58 43 41 43 47 45 54 64 64 64 66 60 72 71 78 74 70 65 62 60 62 62 59
60 47 38 48 93 89 88 78 57 55 52 56 47 43 43 51 53 52 50 51 52 52 61 65 64 67 71 77 74 64 67 65 61 62 62 62 62 50
42 32 35 42 61 88 83 69 78 72 55 59 54 46 40 44 55 63 65 66 64 56 55 61 60 60 66 76 84 80 79 62 59 53 53 60 61 53
77 60 44 43 45 62 75 82 77 72 71 61 48 46 44 44 52 60 68 73 71 65 64 69 66 67 68 68 81 86 64 67 61 66 62 58 56 53
80 76 68 64 61 65 76 69 69 65 68 64 58 48 42 46 52 59 69 75 72 66 66 69 70 72 71 70 81 61 62 62 54 59 62 61 56 62
92 79 75 64 60 61 68 70 64 55 50 56 60 53 46 44 53 66 75 80 83 73 71 74 79 84 78 47 44 68 64 63 59 61 68 75 68 61
96 89 84 78 77 79 74 64 60 52 50 54 52 55 54 45 57 66 71 80 86 77 70 74 81 95 84 70 57 53 60 56 61 67 71 76 80 69
95 98 100 93 86 86 86 79 68 60 60 58 57 56 55 47 52 67 67 69 77 83 73 70 73 79 90 74 68 70 72 71 70 78 77 71 72 70
92 90 92 90 84 72 68 64 69 58 56 57 54 53 53 55 54 52 55 61 69 75 84 85 53 84 84 75 83 82 67 67 78 86 82 88 95 91
91 82 74 90 80 68 64 63 63 63 62 62 60 58 57 58 61 57 57 62 75 83 64 73 85 77 81 91 86 85 86 91 83 92 99 98 99 91
99 99 94 96 91 95 72 65 64 61 62 65 65 66 66 66 65 68 68 66 63 63 86 100 92 88 87 90 95 99 98 96 99 100 93 74 85 97

GFSNE_925_rhum_096.txt.gz
RH
64 77 88 93 96 97 98 98 86 75 60 67 89 99 100 100 100 98 93 94 96 97 97 95 95 98 98 88 89 91 98 100 99 99 92 95 92 98
66 71 86 93 95 100 100 99 99 92 84 87 98 100 100 100 100 99 93 94 96 98 96 94 94 99 98 92 95 99 99 100 100 100 90 88 89 92
61 84 91 95 95 97 94 97 97 94 93 87 97 99 100 100 100 99 95 91 92 93 99 96 97 97 94 95 94 98 100 100 98 98 99 93 93 95
83 88 88 92 92 89 87 87 91 95 100 96 99 100 100 100 100 100 96 91 91 91 93 88 98 91 87 92 73 71 82 97 93 98 100 99 89 82
84 84 86 90 89 87 88 89 95 97 99 99 100 100 100 100 100 100 98 88 81 82 72 64 95 82 67 55 41 39 71 90 88 91 100 100 99 99
87 89 89 89 86 91 94 89 92 98 100 100 100 100 100 100 100 99 98 92 80 73 67 60 52 46 44 43 46 36 53 86 92 83 96 100 100 99
90 89 92 89 82 85 90 93 92 93 98 100 100 100 100 99 98 96 94 86 76 71 61 59 59 54 54 71 91 97 78 80 84 84 86 94 100 100
91 91 93 86 90 88 86 86 83 86 93 100 100 99 97 94 91 87 82 79 69 62 61 63 56 66 65 84 97 97 97 90 85 78 83 84 88 92
97 94 89 85 86 88 78 59 52 66 79 92 97 96 92 87 84 86 77 71 58 54 60 53 62 65 68 94 97 97 96 98 98 79 66 80 82 82
93 94 90 84 77 73 67 61 54 53 51 51 70 81 84 86 84 85 81 69 66 50 53 62 65 66 71 88 82 98 99 99 98 98 95 69 66 77
99 95 91 86 73 55 55 61 57 65 52 48 48 48 54 56 66 58 68 65 58 62 56 67 71 68 74 85 79 97 93 96 99 100 99 88 68 56
95 92 89 83 76 61 62 57 51 56 65 80 85 72 76 56 52 59 72 88 70 68 75 80 77 76 82 86 86 81 86 68 63 63 74 87 66 73
90 92 88 84 73 82 82 56 47 55 66 62 54 62 75 76 44 37 43 46 63 82 58 68 74 79 74 81 83 78 75 81 67 63 65 57 56 56
86 82 78 79 70 81 93 78 54 48 62 58 56 54 58 71 57 48 47 47 46 49 57 57 60 75 85 82 70 77 70 69 64 65 61 60 59 52
62 54 42 38 54 92 90 86 79 72 61 60 57 63 65 60 50 54 54 53 50 48 52 56 54 53 55 88 82 80 85 90 61 57 52 55 60 55
87 58 34 42 70 78 84 88 83 75 68 66 64 73 55 43 59 69 71 64 74 72 52 54 54 53 86 89 88 86 86 88 60 60 62 56 52 51
96 80 66 67 63 64 73 74 80 81 81 74 76 74 69 72 83 77 86 97 95 90 92 63 59 58 64 67 92 87 81 86 82 78 68 68 65 56
97 88 78 70 62 60 67 74 75 75 69 79 72 77 69 71 83 89 94 97 94 91 88 96 90 96 94 66 42 85 82 85 92 83 72 96 92 77
100 88 82 74 70 67 68 75 79 65 67 54 57 60 59 64 80 93 96 94 92 91 94 98 97 92 79 74 69 45 90 94 90 88 92 96 94 91
100 97 91 82 80 77 76 76 72 70 70 61 59 58 59 64 82 85 90 90 87 87 91 98 96 94 84 76 76 81 50 74 96 91 95 95 85 74
100 99 98 93 91 88 85 83 82 79 72 64 65 64 63 66 80 77 82 85 84 84 84 84 79 64 71 90 93 78 78 62 59 88 100 100 92 84
100 99 97 99 97 96 85 78 74 74 75 70 67 67 60 59 69 74 78 80 82 80 79 81 82 85 99 100 84 75 76 83 90 79 88 100 99 90
100 99 99 99 99 99 98 86 76 72 69 64 63 64 64 70 67 74 77 79 78 82 83 88 100 100 100 97 92 86 84 92 93 92 94 96 99 100

GFSNE_925_rhum_099.txt.gz
RH
66 60 57 69 82 87 86 85 80 78 67 69 91 96 97 99 100 99 97 96 97 99 99 95 94 93 97 94 89 100 99 99 99 98 99 98 96 98
63 62 73 84 89 94 92 91 90 85 85 82 96 98 99 99 98 98 96 95 95 100 94 94 94 97 94 89 83 98 98 99 100 99 100 99 94 92
59 71 78 83 90 93 95 95 91 94 93 83 91 91 92 99 100 99 96 94 93 94 94 93 98 94 88 82 84 74 88 98 99 100 99 97 93 91
64 66 76 83 90 91 90 89 86 86 95 91 99 94 99 100 100 100 98 94 92 92 91 90 96 82 61 42 44 45 60 96 99 91 100 94 96 88
72 75 80 86 88 87 83 84 85 87 88 97 98 100 100 100 100 100 98 92 89 88 86 73 92 76 57 48 43 36 40 87 99 83 96 100 100 89
76 78 82 86 86 86 89 91 93 95 97 96 96 100 99 100 100 100 99 97 87 77 77 68 65 52 44 51 90 80 62 90 98 87 91 99 100 100
84 86 86 87 86 87 86 88 92 95 95 97 100 100 100 99 99 99 99 94 87 78 68 63 55 55 60 84 87 97 94 97 98 85 78 94 100 100
85 88 87 85 81 79 79 84 86 87 90 95 99 99 98 98 95 93 91 82 81 76 70 60 48 63 68 63 96 96 99 99 100 89 83 83 87 94
86 90 91 90 90 84 85 75 70 73 82 90 94 97 96 93 90 87 82 80 68 60 56 56 56 64 65 97 89 98 98 98 98 98 89 83 81 80
94 95 92 80 85 85 82 68 55 46 49 54 77 84 88 85 86 87 84 74 62 52 44 63 60 63 62 81 77 98 98 96 99 98 95 64 86 78
98 96 91 81 80 75 70 61 55 61 47 40 50 58 71 83 81 78 72 62 59 63 50 65 64 64 64 82 77 90 82 80 83 80 93 74 61 74
92 94 92 84 82 76 59 60 56 56 66 78 60 53 53 52 57 70 62 73 66 68 65 68 74 73 86 72 76 69 73 65 59 57 71 51 63 75
90 90 89 89 81 79 71 58 52 50 64 66 59 69 79 65 50 48 59 54 68 83 66 60 78 68 76 85 75 72 68 70 62 58 58 49 51 51
88 86 84 86 87 84 89 69 53 49 63 60 54 56 67 69 62 55 40 37 40 53 50 51 57 76 85 83 77 72 59 61 61 60 54 50 52 49
86 83 80 79 94 89 90 94 71 52 59 62 57 57 58 70 60 51 48 47 46 47 50 48 46 48 53 81 85 80 74 84 55 53 51 46 48 46
81 63 61 48 56 84 88 90 92 72 64 62 62 65 67 64 58 56 57 56 64 60 46 44 46 45 57 58 74 79 78 76 66 50 51 51 48 46
98 79 58 58 70 75 82 91 90 80 74 66 67 72 68 58 66 66 67 80 87 94 88 55 52 51 48 55 67 68 76 83 78 72 71 56 50 50
99 91 76 67 66 65 72 79 77 82 80 77 72 70 65 65 69 78 73 85 89 93 90 87 63 78 81 58 47 52 76 79 84 86 73 74 67 66
100 96 89 80 69 63 61 70 78 77 77 72 68 71 78 70 83 81 82 90 93 93 92 90 88 92 91 92 71 54 51 84 87 76 75 87 80 76
100 99 93 92 89 75 66 70 74 78 72 70 71 68 78 69 73 90 87 86 90 90 94 94 89 88 86 83 77 75 69 56 81 85 92 96 94 88
100 100 100 99 99 96 87 70 69 72 64 68 69 68 74 69 81 75 80 88 85 87 93 93 74 65 81 82 79 80 73 70 62 74 82 95 99 91
100 100 100 100 99 98 98 87 87 91 92 85 76 71 72 70 75 76 80 85 86 88 82 79 81 83 93 78 89 90 79 76 75 73 72 89 98 92
99 100 100 100 100 99 99 96 90 86 86 84 81 81 78 84 70 73 77 74 79 84 85 87 88 88 99 100 100 97 88 79 80 85 88 92 95 100

GFSNE_925_rhum_102.txt.gz
RH
88 83 74 66 67 73 74 80 80 88 81 92 96 98 94 96 98 99 98 98 99 100 99 91 89 93 91 96 94 100 98 99 100 100 100 99 99 98
82 69 65 68 75 78 78 82 86 86 91 82 95 96 96 91 93 94 96 97 97 98 97 94 91 93 90 86 84 97 100 99 98 100 99 100 96 97
69 70 72 74 75 80 89 88 90 86 90 85 91 96 99 97 95 98 97 93 94 97 95 93 94 84 81 62 42 73 83 100 100 100 100 100 90 93
67 66 72 79 83 87 90 91 91 88 90 96 97 96 99 100 99 99 99 95 93 94 93 90 91 80 71 50 35 33 54 93 100 95 96 99 99 88
65 64 62 69 74 80 86 90 89 88 86 91 94 97 97 100 100 99 99 96 93 91 91 83 88 81 63 56 77 52 75 95 100 96 94 100 100 85
65 66 68 77 81 86 88 85 86 87 88 89 96 100 98 100 100 99 100 99 93 87 82 80 72 60 48 79 76 90 91 97 99 94 87 99 100 100
67 68 73 78 85 86 88 85 88 92 95 93 99 100 100 100 99 98 100 99 95 89 77 66 64 55 55 69 72 84 98 98 100 98 78 95 100 100
71 75 78 80 80 83 85 86 87 87 88 91 92 94 96 99 98 97 97 91 87 78 76 66 61 53 56 63 84 97 96 97 99 99 92 86 92 98
76 79 81 79 81 81 79 79 83 87 87 88 89 93 98 96 94 92 91 84 75 64 54 57 59 62 62 89 81 99 100 98 98 87 54 84 79 81
80 83 84 84 86 86 84 80 68 58 56 80 92 94 92 89 91 88 84 81 72 63 48 59 59 63 62 69 81 99 97 96 100 98 57 54 77 77
85 89 89 88 80 86 88 75 65 52 51 45 52 73 86 85 85 86 88 78 64 57 46 56 60 63 63 79 72 86 73 69 64 93 87 61 66 61
87 88 93 93 81 85 83 70 61 54 58 48 43 49 57 79 82 77 76 66 59 68 57 57 73 63 70 66 75 67 73 66 56 58 52 63 69 64
91 94 94 92 85 84 83 64 58 47 59 60 64 68 63 56 62 65 66 52 64 76 62 50 69 66 92 83 68 66 65 63 58 53 53 48 51 57
87 90 88 88 91 86 90 65 58 54 57 67 61 68 77 66 51 45 50 52 61 39 42 46 49 57 63 76 79 65 53 54 58 58 53 49 49 48
91 90 88 84 91 93 93 84 66 56 58 62 57 53 63 65 57 49 48 45 40 38 43 47 40 44 54 77 80 71 66 64 52 46 48 44 44 47
99 91 86 84 90 97 92 96 81 57 52 62 60 57 57 65 70 53 52 50 48 53 50 48 44 40 38 42 55 70 64 54 48 42 40 41 44 43
100 100 100 100 100 100 91 91 94 78 64 58 62 61 62 68 73 59 56 59 66 70 52 46 47 46 43 50 54 50 56 71 60 61 53 44 39 39
100 100 99 98 85 88 94 94 94 95 79 71 65 68 71 71 65 87 80 79 71 90 78 66 55 65 56 48 46 47 71 75 73 79 76 65 47 48
100 100 99 99 98 83 77 89 95 92 83 74 70 69 69 64 83 89 90 87 86 79 90 80 75 64 96 93 72 48 46 49 75 82 76 69 62 63
100 100 100 100 98 82 64 69 76 79 81 80 78 75 74 70 79 92 81 88 80 82 96 92 87 74 66 76 72 65 65 61 64 67 72 90 91 81
100 100 100 99 99 97 89 67 63 69 75 77 80 79 74 75 83 78 79 85 77 77 95 94 70 63 70 81 79 70 56 70 73 70 71 87 89 85
100 100 100 100 100 99 99 98 93 90 79 75 72 72 73 68 77 76 79 78 90 83 72 67 72 90 96 91 83 67 73 78 75 75 74 69 74 92
100 100 100 100 100 100 100 99 99 98 86 75 76 72 72 76 74 72 73 75 75 79 78 84 86 88 83 83 86 77 94 89 81 83 80 77 82 91

GFSNE_925_rhum_105.txt.gz
RH
83 97 99 91 70 69 71 69 69 88 90 93 94 98 93 90 92 93 94 96 96 97 98 96 91 86 82 79 93 98 100 98 98 98 98 98 100 99
88 94 91 84 75 71 73 75 79 77 87 86 97 98 97 94 90 90 90 94 98 98 97 92 95 92 86 77 62 61 90 97 100 99 100 100 99 100
100 98 88 76 70 70 75 78 82 87 92 91 92 95 96 95 92 93 93 92 96 99 97 94 94 88 77 62 52 42 70 92 100 100 100 98 100 95
99 93 77 73 76 74 76 80 81 86 87 92 91 94 99 100 100 100 99 96 94 95 96 93 95 86 75 70 82 47 58 90 97 100 95 98 100 93
94 80 71 71 75 79 82 83 86 88 91 91 91 97 100 99 99 99 99 98 95 95 95 91 94 85 69 78 84 77 87 96 96 100 83 98 100 100
87 74 68 69 72 75 81 81 85 91 91 91 93 95 98 99 100 99 100 100 95 92 87 82 78 73 59 88 62 70 98 97 100 100 86 97 100 100
82 74 71 70 73 74 78 87 87 87 90 93 98 100 100 100 99 99 100 99 98 95 85 76 68 64 53 51 64 80 94 97 100 98 93 94 100 100
75 75 76 78 81 86 86 90 86 85 88 92 94 99 92 94 96 97 99 99 96 89 80 74 66 59 51 61 86 96 96 96 98 100 100 87 94 100
72 73 77 79 82 83 84 86 86 85 86 84 91 92 93 89 96 99 98 93 84 75 69 60 60 52 58 78 77 97 98 98 98 97 93 93 84 90
74 73 74 75 77 78 81 80 79 80 85 88 88 88 89 95 97 95 92 90 79 73 60 50 58 56 62 73 87 98 93 97 96 97 89 92 85 76
78 78 79 79 78 79 81 82 81 72 62 58 73 87 93 89 90 96 90 84 74 68 61 47 58 59 63 66 70 81 69 62 68 98 66 63 79 79
83 83 84 84 84 83 84 83 78 70 58 48 44 49 71 85 87 88 85 83 66 65 51 50 65 63 63 64 70 66 69 65 60 71 63 70 65 50
94 89 89 92 90 86 95 85 81 72 59 51 46 50 58 82 84 84 81 84 72 48 50 46 71 66 89 79 66 63 63 62 60 53 50 50 61 61
94 92 89 89 94 91 92 93 80 69 54 62 64 68 68 64 69 66 66 61 60 57 46 50 53 52 58 77 73 60 53 56 62 59 55 50 48 52
96 92 93 94 99 98 93 97 80 74 54 72 73 70 66 65 56 52 53 58 60 59 49 56 44 48 50 51 70 67 58 59 52 47 47 46 46 48
100 100 99 98 100 99 100 100 98 70 60 65 62 55 63 75 66 53 53 52 48 56 58 56 46 41 44 47 53 44 51 47 47 41 40 40 41 41
100 100 100 100 100 100 100 100 100 96 72 62 59 60 58 66 72 66 51 55 49 52 59 53 47 43 38 33 34 36 42 53 54 56 48 41 39 39
100 100 100 100 100 100 100 100 100 100 94 58 64 63 63 66 73 79 64 59 61 67 51 46 49 57 50 38 35 34 47 48 59 63 65 58 44 48
100 100 100 100 100 100 100 100 100 100 98 74 64 65 65 65 76 94 98 82 75 71 78 69 59 58 91 83 67 48 48 44 56 65 64 60 50 58
100 100 100 100 100 99 99 99 99 99 100 95 78 68 70 72 87 90 90 98 92 79 87 91 83 60 52 65 55 59 50 49 54 64 69 65 69 76
100 100 100 99 99 99 99 98 98 99 98 97 87 78 74 74 81 85 81 87 83 82 93 95 69 65 70 69 74 65 62 63 66 73 71 75 91 80
100 100 100 99 99 99 99 99 99 99 97 92 92 87 83 77 82 84 82 81 92 71 73 74 71 87 91 85 83 64 58 63 72 75 74 72 63 87
100 100 100 100 100 100 100 99 99 99 98 98 91 89 88 88 82 76 75 73 72 76 84 82 81 87 89 85 84 79 76 66 82 81 80 79 77 75

GFSNE_925_rhum_108.txt.gz
RH
97 95 84 88 87 78 72 62 69 85 92 86 92 97 97 93 89 86 85 88 93 95 97 98 94 88 85 80 72 63 84 94 93 96 99 99 99 97
94 99 99 96 97 93 76 72 71 65 80 79 96 97 100 98 93 86 83 87 90 96 97 95 94 92 87 78 63 68 64 79 93 91 100 100 100 99
92 91 98 100 95 84 79 77 76 75 85 89 92 96 99 96 88 88 89 91 88 94 99 98 93 93 84 75 68 78 74 73 94 92 100 100 99 99
99 100 100 100 94 82 79 72 74 81 85 92 97 100 99 98 95 94 93 94 93 93 98 98 96 93 86 75 72 91 51 80 95 96 100 100 98 100
100 100 100 100 93 88 86 78 79 83 89 90 98 100 100 100 100 99 93 99 96 95 96 97 99 95 85 70 94 58 84 96 96 100 100 98 99 99
100 100 99 97 90 91 85 82 90 91 92 96 95 100 100 100 100 99 100 100 98 96 93 92 84 80 75 75 56 51 86 95 97 99 100 97 99 100
98 97 95 91 86 83 85 87 94 92 96 98 97 100 100 100 100 99 100 100 98 98 91 82 81 75 67 57 48 67 96 96 96 100 99 93 100 100
88 94 91 88 84 80 79 80 81 87 92 92 96 99 100 95 89 98 100 100 99 96 96 88 79 71 66 49 64 96 95 97 98 99 94 94 95 100
78 78 78 78 80 81 87 88 91 94 91 84 88 91 92 90 90 98 97 98 92 81 91 76 67 66 50 59 74 95 97 98 98 97 89 91 92 95
82 80 78 76 78 84 87 89 90 94 92 89 86 82 86 88 87 89 95 98 94 79 76 54 55 52 50 58 75 92 98 86 97 96 79 91 94 87
77 78 81 81 79 85 91 89 89 88 86 86 88 89 88 88 91 96 100 98 83 76 74 61 52 55 56 59 68 85 75 61 67 95 62 56 73 89
83 81 82 85 84 86 87 86 90 84 81 72 65 75 88 92 91 93 94 93 79 80 74 63 54 54 62 56 66 68 67 66 62 75 64 63 53 50
94 92 86 85 89 91 92 88 85 82 74 65 58 52 60 82 95 90 94 88 81 73 48 54 58 64 61 75 66 63 61 62 57 53 52 50 57 53
100 97 94 93 92 93 97 97 91 87 78 69 62 59 63 78 93 92 91 90 89 81 59 43 45 57 65 82 64 61 61 61 57 57 54 50 46 50
100 99 99 99 96 100 99 99 99 97 86 78 74 65 56 57 78 77 76 74 72 69 63 47 45 54 50 43 62 63 52 51 47 46 46 44 42 42
98 99 100 99 99 99 100 100 100 99 99 99 94 75 72 76 66 68 69 75 78 77 72 62 62 47 53 52 48 45 43 44 48 41 40 40 40 42
100 100 100 100 100 100 100 100 100 100 99 99 98 96 86 87 92 81 57 66 61 70 75 67 60 53 52 40 40 35 40 47 48 48 47 40 40 38
100 100 100 100 100 100 100 100 100 100 99 98 98 97 95 97 92 79 66 63 61 58 68 68 60 57 47 37 33 31 38 40 48 57 56 51 44 44
100 99 100 100 100 100 100 100 100 100 99 99 98 98 96 96 89 86 82 66 68 66 61 59 58 48 91 77 63 32 38 39 44 52 59 57 49 60
100 100 100 99 100 100 100 99 99 99 99 99 99 98 97 96 92 95 93 91 78 77 87 82 63 50 39 68 53 64 45 49 46 52 59 63 58 62
100 100 100 100 100 99 100 100 100 100 100 99 99 98 97 92 88 90 92 96 91 84 92 92 70 61 50 52 60 62 54 52 58 62 70 71 73 73
100 100 100 100 100 100 99 99 100 100 100 100 99 98 98 83 85 91 91 91 95 81 79 70 72 90 83 76 72 57 56 65 64 69 75 73 61 68
100 100 100 100 100 100 99 99 99 99 99 99 99 98 98 91 85 83 82 81 86 87 79 81 90 89 89 86 82 74 66 67 67 71 76 77 75 71

GFSNE_925_rhum_111.txt.gz
RH
89 90 99 99 99 90 90 95 91 97 94 89 88 94 96 94 93 88 85 85 86 89 95 99 100 96 90 84 81 73 72 78 80 88 89 88 98 99
99 100 100 100 99 96 94 84 84 76 84 77 92 92 99 98 95 92 87 82 86 92 91 93 95 92 90 86 78 71 77 75 80 89 89 89 100 100
99 100 99 100 99 95 94 98 96 87 82 86 84 91 97 99 97 92 84 81 80 86 95 96 95 94 91 84 78 74 73 87 87 92 93 100 100 100
100 100 100 100 100 100 99 98 88 86 82 87 97 100 100 100 99 92 88 85 85 88 90 93 98 95 91 87 78 72 72 91 92 95 100 100 100 99
99 98 100 100 100 100 99 99 98 96 96 89 98 100 100 100 100 100 97 93 91 93 95 96 97 100 94 85 82 66 55 79 93 95 99 100 97 98
99 100 99 100 100 100 100 100 99 100 99 99 98 100 99 100 100 99 100 99 95 96 96 95 94 94 87 79 72 51 56 95 95 96 100 100 96 99
87 91 95 98 100 100 100 99 97 100 97 99 100 100 100 99 99 99 100 98 100 100 97 92 88 86 83 72 63 54 95 97 96 97 100 99 99 100
81 80 81 86 99 100 100 97 95 96 100 100 100 99 100 98 100 99 100 100 99 98 99 92 85 82 76 70 55 81 92 96 98 98 100 99 100 96
81 81 80 79 82 89 92 94 95 94 96 89 97 98 98 94 96 97 99 99 95 89 99 92 88 80 72 60 59 83 89 97 98 98 100 100 96 88
85 82 83 82 81 82 85 95 98 95 99 95 96 91 89 86 88 87 87 92 97 91 91 74 66 63 57 49 66 89 77 84 90 98 98 86 87 81
87 86 84 82 80 86 89 92 98 99 99 100 100 96 91 86 87 93 96 100 94 86 85 68 65 58 54 53 62 79 77 68 68 91 86 60 57 72
98 96 92 87 85 88 94 92 98 94 95 95 98 92 90 90 90 88 88 100 91 89 80 74 63 48 61 60 61 71 69 65 59 52 53 63 47 38
100 99 98 97 94 93 98 100 95 92 89 90 85 81 84 91 100 94 96 97 93 78 71 76 61 57 47 69 65 70 64 59 57 51 46 46 46 42
99 100 100 98 99 97 100 100 99 100 95 88 76 70 65 75 96 100 100 100 98 83 76 55 44 48 55 81 67 68 63 61 58 56 49 44 42 42
100 98 94 100 100 100 99 100 100 100 98 93 84 77 66 59 88 100 100 99 95 89 78 64 48 42 45 42 65 70 64 53 49 48 47 43 40 41
98 100 99 99 100 100 100 99 100 99 99 99 99 99 99 96 91 90 89 88 87 84 77 65 56 50 52 51 47 59 52 53 50 40 40 40 41 42
98 100 100 100 99 100 100 100 100 100 99 100 99 98 98 98 96 96 91 91 87 88 89 81 72 67 56 51 52 42 44 46 39 36 36 37 38 37
99 100 99 100 100 100 100 100 100 100 100 100 99 98 98 98 97 96 94 94 93 91 87 80 76 73 64 50 43 37 47 49 51 51 44 42 40 38
99 100 99 100 100 100 100 100 99 99 100 100 99 98 98 98 99 98 97 96 94 70 75 70 73 56 85 72 53 45 37 42 49 59 53 46 48 54
94 100 100 100 100 100 100 100 100 100 99 99 99 99 98 98 98 98 97 96 81 78 77 76 68 53 40 64 66 70 42 43 50 53 61 66 61 54
95 98 100 100 100 100 100 100 100 99 99 100 100 100 100 97 98 97 96 99 84 74 90 81 52 45 43 45 59 79 74 48 48 51 61 69 68 68
93 99 100 100 100 100 100 100 100 100 100 100 100 100 99 98 98 97 98 98 95 85 76 72 68 78 60 54 56 63 73 67 63 64 58 65 60 64
99 99 100 100 100 100 100 99 99 99 99 100 99 99 98 98 98 97 96 91 91 93 86 88 92 95 84 74 66 59 61 75 79 82 67 69 71 72

GFSNE_925_rhum_114.txt.gz
RH
96 95 95 90 88 93 100 100 96 97 97 88 90 87 94 99 96 91 86 82 78 82 93 100 98 98 96 89 83 79 75 72 70 83 90 88 87 91
98 98 95 96 100 100 100 100 100 97 97 82 88 87 94 98 100 94 91 87 84 83 86 92 96 95 93 87 84 79 76 72 67 85 89 90 96 100
100 100 100 100 100 100 100 100 100 100 96 88 86 95 95 100 100 100 97 94 86 86 95 91 94 95 93 90 84 79 75 66 66 87 92 92 100 100
100 100 100 98 99 100 100 100 100 100 99 96 98 100 99 100 100 100 99 95 90 90 91 99 100 97 96 91 85 79 73 60 67 92 94 96 98 99
96 99 100 100 100 100 99 100 100 100 100 99 100 99 100 100 100 100 100 97 93 92 98 99 99 100 98 93 85 78 59 54 77 91 96 98 98 99
84 87 90 95 99 100 100 100 100 100 100 100 100 100 100 99 98 99 99 99 98 95 95 99 97 99 100 92 84 72 54 73 82 96 98 98 100 99
76 76 77 79 81 84 100 99 100 100 100 100 100 100 100 100 100 92 98 99 100 98 95 98 97 94 93 85 79 65 64 79 94 98 98 99 99 100
87 84 82 81 80 82 84 98 100 100 100 100 100 98 100 99 95 98 100 100 99 98 99 98 95 91 88 82 72 67 82 83 93 98 98 99 100 98
84 83 84 83 81 80 81 89 99 100 100 98 99 99 98 95 98 100 100 99 97 88 98 98 96 90 85 79 69 74 81 81 94 99 98 100 91 88
83 88 90 89 87 85 84 85 87 95 99 100 100 99 94 93 96 91 92 99 99 95 92 95 92 91 84 72 62 78 76 74 84 98 92 71 78 84
93 89 92 98 94 94 94 90 89 89 92 100 100 100 100 100 99 100 100 100 99 94 95 86 73 71 67 61 64 85 76 65 69 92 80 54 48 67
96 92 84 96 98 99 100 100 100 95 90 99 99 100 100 99 94 88 89 100 95 96 91 86 68 62 66 61 67 82 80 62 61 53 49 49 44 39
90 94 95 97 94 98 100 100 99 100 99 100 98 100 100 100 100 97 94 92 92 86 85 87 73 62 44 68 73 79 76 65 58 51 47 45 55 38
85 89 94 96 92 91 95 100 100 100 100 100 100 100 98 96 100 100 100 100 91 86 82 76 67 63 51 78 78 78 75 63 58 53 46 43 48 48
82 84 94 96 97 96 96 97 98 100 100 100 100 99 98 95 100 100 100 100 100 97 87 74 71 47 43 50 69 84 77 68 60 56 49 44 39 42
88 89 90 94 100 100 99 98 100 100 100 100 100 100 98 99 99 100 100 99 99 95 86 79 68 50 46 42 47 71 56 54 52 46 42 40 39 40
90 92 89 92 95 96 100 99 98 100 100 100 100 99 99 99 98 99 99 98 97 98 96 89 72 62 52 44 52 52 48 53 50 42 40 36 37 38
90 92 96 96 98 99 99 100 100 100 100 100 100 99 99 98 98 98 98 98 96 96 96 96 90 83 73 65 50 47 48 45 48 46 39 37 40 38
92 92 96 93 95 99 100 100 100 100 100 100 100 99 99 98 98 98 98 98 99 97 97 96 95 77 84 78 68 50 38 48 47 53 47 40 44 49
86 93 96 94 97 99 100 100 100 100 100 100 99 99 99 98 98 98 98 97 97 97 96 98 93 70 50 72 76 63 50 36 46 52 56 52 50 55
94 94 95 99 98 100 100 100 100 100 100 100 99 99 98 98 99 99 98 98 98 97 97 96 82 75 40 42 70 99 64 57 44 44 56 64 66 66
94 92 94 95 99 100 100 100 100 100 100 100 99 98 98 98 99 100 99 98 98 95 92 89 86 84 54 45 69 96 95 65 63 62 64 61 62 77
100 100 100 100 100 100 100 98 99 100 99 99 99 98 98 98 98 98 98 98 97 97 91 95 90 80 64 51 56 88 89 79 73 77 67 64 66 64

GFSNE_925_rhum_117.txt.gz
RH
92 88 87 88 94 85 100 100 98 96 88 85 88 81 86 94 98 97 98 96 92 80 78 95 98 93 92 94 95 87 80 78 74 73 92 91 88 87
97 100 94 88 97 99 99 100 100 99 96 88 80 83 85 92 100 100 100 100 97 90 98 100 100 99 98 96 90 83 80 77 76 90 91 89 88 91
98 98 98 98 100 100 100 100 100 100 97 92 95 91 92 96 100 99 98 98 93 90 99 94 95 98 94 94 88 84 80 76 71 77 91 83 89 100
99 98 97 99 99 100 100 100 100 100 100 97 99 94 94 98 97 100 100 100 97 95 87 99 99 96 94 93 90 86 82 76 66 70 89 79 92 99
87 89 90 92 90 92 98 99 99 99 100 100 99 99 100 100 100 100 100 100 99 91 89 97 99 99 97 96 93 89 82 68 65 75 70 79 98 99
78 79 80 82 91 98 100 100 100 100 100 100 100 100 100 100 100 99 100 99 99 96 93 91 99 100 100 99 96 90 82 62 77 81 93 90 99 100
82 82 83 84 83 82 86 93 95 100 100 100 100 99 100 100 100 100 100 100 100 97 97 98 99 99 99 100 95 89 75 67 77 86 97 99 99 99
81 80 80 78 76 78 83 82 84 96 100 100 99 98 99 98 100 99 100 99 98 99 100 99 98 100 98 96 92 83 70 73 72 78 82 97 99 100
88 86 82 80 86 94 92 93 90 83 88 99 100 99 99 99 99 100 100 98 95 90 100 100 100 99 96 92 89 78 89 77 72 98 98 97 96 91
95 96 95 90 82 97 95 99 100 100 99 95 100 100 99 99 99 98 99 100 100 96 100 98 98 95 95 90 84 85 97 75 67 97 90 88 70 83
86 87 90 90 93 97 99 100 100 99 96 94 95 99 100 100 100 100 100 100 100 100 100 93 94 92 93 90 81 95 97 71 68 96 94 86 48 64
76 78 78 88 93 89 94 99 100 99 100 98 98 95 100 100 100 97 100 100 100 97 98 95 84 76 84 72 74 78 94 92 74 70 52 56 52 44
88 82 80 85 85 85 92 94 98 99 100 100 100 99 100 100 100 100 98 100 98 92 91 96 79 74 59 85 87 86 93 81 65 59 50 56 77 41
85 86 87 90 91 90 92 98 99 98 100 99 100 100 99 100 100 100 100 100 100 98 94 93 81 71 63 83 79 91 92 80 65 56 50 49 58 44
85 86 89 87 87 90 92 94 99 100 100 100 99 100 99 99 100 100 100 100 99 100 100 100 98 78 61 64 85 96 97 76 64 59 54 48 44 44
86 89 86 86 88 89 95 99 100 100 100 100 100 98 100 100 100 100 100 99 99 99 100 100 99 65 55 47 50 94 70 79 68 62 52 48 43 39
86 80 86 89 89 89 95 99 100 100 100 100 100 100 100 100 99 99 99 99 98 97 97 98 97 62 49 40 62 84 69 64 65 52 51 51 47 44
80 85 85 87 88 88 95 98 99 100 100 100 100 100 99 99 98 98 98 98 99 98 98 97 97 95 70 64 50 62 61 63 57 49 46 45 52 46
82 85 89 90 91 94 95 98 99 100 99 100 100 100 100 99 99 98 99 98 99 99 98 97 97 98 88 88 81 55 48 56 50 53 45 38 47 48
86 84 87 88 95 96 96 98 99 100 100 100 100 100 99 99 99 99 98 98 98 97 97 97 97 95 87 89 90 77 52 42 50 58 56 57 64 70
90 91 94 95 96 98 99 100 100 100 100 100 100 100 100 99 100 100 99 98 98 98 97 98 95 95 82 74 82 96 71 54 43 45 52 62 81 64
96 99 100 100 100 100 100 100 100 99 100 99 100 100 100 99 99 100 98 98 98 97 97 96 95 97 80 70 89 95 98 83 62 58 59 59 58 82
100 100 100 100 100 100 100 100 100 100 100 99 99 100 100 100 99 98 98 98 98 98 97 97 100 100 80 61 94 96 97 98 96 79 72 64 61 56

GFSNE_925_rhum_120.txt.gz
RH
86 84 98 95 98 98 98 100 95 93 83 83 87 79 78 80 79 85 90 98 100 97 97 92 93 97 91 95 88 88 93 88 81 79 82 93 93 91
90 99 99 99 98 96 99 100 100 98 96 88 88 87 87 83 83 89 96 100 100 99 97 84 93 95 94 90 90 93 92 85 80 83 87 93 93 91
100 100 100 100 100 100 100 100 100 100 97 96 97 95 93 90 88 92 99 100 100 99 98 89 91 95 97 94 92 86 85 82 84 79 87 87 92 87
100 98 98 95 94 96 99 99 100 100 100 97 99 98 97 95 92 99 100 100 100 100 100 100 100 94 89 87 83 85 86 83 78 80 75 91 92 86
89 88 86 86 88 91 93 98 98 100 99 100 98 100 99 98 99 100 100 100 100 100 100 100 100 90 84 83 90 93 91 88 84 75 76 84 93 92
89 89 88 89 88 89 88 89 90 93 96 100 99 99 99 98 100 99 100 99 100 100 100 100 100 99 98 96 93 90 92 88 82 79 96 87 80 93
78 80 84 80 77 84 98 94 92 88 90 94 98 99 99 100 98 98 100 100 100 99 98 98 99 100 100 99 99 94 94 91 80 83 91 93 95 96
80 81 81 79 81 86 91 96 99 100 99 94 89 93 90 97 98 100 100 100 98 97 100 100 100 98 99 99 100 93 93 90 84 90 94 96 96 99
86 82 77 73 75 74 78 87 89 94 98 100 100 98 97 97 98 100 100 99 95 88 99 99 100 100 100 100 100 100 95 86 98 89 90 97 97 99
72 71 69 67 70 86 84 84 87 82 83 91 96 100 100 98 100 100 100 100 100 100 100 98 100 100 100 100 100 98 91 95 99 69 95 98 96 79
66 67 72 71 76 83 80 80 85 86 87 93 89 84 92 96 99 100 100 100 99 99 100 98 100 99 99 97 96 95 90 100 98 71 96 99 96 49
70 70 70 79 87 93 92 89 86 87 87 90 91 94 97 98 99 100 100 99 99 100 98 98 98 94 98 98 94 96 99 100 97 91 94 76 91 49
72 70 70 83 90 92 90 89 88 91 90 93 93 96 100 94 98 98 100 100 100 98 94 100 100 100 100 98 98 98 95 91 90 92 63 52 84 50
74 73 80 87 88 88 89 90 91 90 98 99 99 99 99 100 99 100 100 100 100 100 99 99 98 98 99 98 96 98 98 95 91 80 72 51 66 46
78 84 84 80 82 82 87 88 87 93 100 100 100 98 100 100 100 99 99 100 100 100 100 100 100 100 99 99 94 94 99 100 98 81 56 52 60 50
83 82 79 80 82 82 83 84 85 93 99 100 100 100 100 100 100 100 100 100 100 100 100 99 100 100 99 98 96 93 91 96 92 71 62 52 46 47
86 79 76 77 79 79 80 82 86 91 93 100 100 100 100 100 99 99 100 99 99 100 97 98 98 99 98 98 97 94 90 96 99 77 67 68 53 50
81 74 74 78 80 80 82 85 86 89 94 99 100 100 100 100 99 98 99 99 99 99 99 97 97 97 97 89 72 87 88 97 99 68 69 77 68 48
76 76 76 76 79 82 86 86 90 93 98 100 100 100 100 100 100 100 99 98 99 99 98 98 98 98 96 94 97 87 95 97 86 71 65 79 80 57
78 79 80 82 87 86 88 94 96 96 96 97 100 100 100 100 100 99 99 99 99 99 99 98 98 98 97 96 93 98 85 80 78 86 92 87 73 63
82 83 87 94 94 94 98 100 98 98 97 97 99 100 100 100 100 100 99 100 99 99 97 98 98 98 97 96 89 96 95 89 83 71 78 87 84 84
98 93 95 97 98 100 100 100 100 98 98 100 99 99 99 100 100 99 99 99 98 98 98 98 98 98 97 91 85 95 100 94 69 62 64 64 70 83
97 97 98 100 100 100 100 100 100 99 100 100 100 99 99 100 99 98 98 99 99 99 99 98 99 98 99 97 95 92 99 99 98 83 74 69 60 58